[{"header": {"dx": 0.06612293990616946, "dy": 0.0552356325346848, "nx": 98, "ny": 59, "la1": 35.046912555036876, "la2": 31.78801023549047, "lo1": -121.43107172385933, "lo2": -114.95102361305473, "refTime": "2026041208", "parameterCategory": 1, "parameterNumber": 2}, "data": [14.25, 14.18, 14.37, 14.55, 14.69, 14.68, 14.75, 14.75, 14.75, 14.75, 13.77, 11.53, 12.35, 10.38, 8.23, 8.58, 7.59, 7.59, 8.93, 7.59, 7.9, 8.22, 8.38, 8.58, 9.2, 9.3, 8.24, 7.59, 6.2, 5.0, 3.53, 2.19, -0.0, -8.06, -8.48, -9.39, 10.28, 8.94, 5.37, -0.0, -0.0, 1.93, 5.2, 9.17, 11.44, 14.38, 15.93, 17.16, 16.02, 13.8, 10.62, 10.23, 10.23, 10.12, 11.35, 10.59, 10.99, 11.31, 11.31, 11.77, 11.77, 11.37, 9.17, 4.81, 6.67, 8.59, 9.8, 10.94, 12.45, 13.51, 13.78, 13.43, 12.72, 11.95, 12.42, 12.45, 12.35, 13.29, 13.86, -8.85, -8.23, -6.44, -6.44, -4.6, -2.02, 0.0, 0.0, 3.53, 9.3, 10.48, 10.35, 10.25, 10.25, 10.62, 9.17, 12.96, 3.14, -0.0, 13.82, 14.18, 14.37, 14.55, 14.51, 14.66, 15.11, 15.2, 14.75, 14.75, 13.41, 12.79, 11.4, 10.52, 11.03, 9.3, 7.27, 6.45, 5.95, 6.17, 6.7, 7.24, 7.24, 8.22, 8.58, 8.58, 7.27, 7.27, 3.98, 2.71, 2.28, 1.2, -2.28, -7.37, -8.05, -8.49, -8.05, 8.05, -0.0, -0.0, -0.0, -0.0, 5.8, 11.17, 14.79, 16.96, 18.26, 17.43, 15.19, 11.16, 10.79, 10.79, 10.79, 10.62, 10.59, 11.09, 11.16, 11.77, 11.77, 11.99, 12.21, 10.79, 4.81, 5.8, 6.43, 8.44, 9.48, 10.36, 11.87, 13.39, 14.56, 14.13, 13.39, 12.83, 12.96, 12.86, 12.31, 13.29, 13.86, -8.85, -8.23, -6.44, -6.44, -4.6, -2.02, 0.0, 0.0, 3.53, 9.3, 10.48, 10.35, 10.25, 10.25, 10.62, 9.17, 12.96, 3.14, -0.0, 13.82, 14.18, 14.37, 14.31, 14.51, 14.66, 15.11, 15.2, 15.2, 14.3, 12.52, 10.28, 11.46, 10.79, 9.6, 8.93, 7.9, 7.9, 6.71, 6.94, 4.15, 6.45, 8.22, 8.53, 8.85, 8.03, 6.95, 3.11, -0.0, -0.0, -0.0, -0.0, -0.0, -0.0, -0.0, -0.0, -5.69, 8.94, -0.0, -0.0, -0.0, 4.38, 11.38, 16.44, 19.08, 19.64, 19.64, 17.39, 12.25, 11.6, 10.99, 11.37, 10.99, 10.99, 10.01, 11.37, 11.72, 12.21, 12.38, 12.38, 12.25, 7.78, 4.1, 4.55, 6.3, 7.96, 8.1, 9.27, 10.75, 12.36, 13.11, 14.13, 13.74, 12.56, 12.96, 12.52, 12.52, 14.16, 13.86, -9.48, -10.4, -8.22, -5.75, -5.29, -3.25, 0.0, 0.0, 3.53, 8.53, 10.04, 11.21, 11.07, 9.97, 10.59, 12.58, 5.8, 2.54, 2.2, 13.57, 13.75, 14.1, 14.31, 14.51, 14.68, 15.11, 15.08, 14.75, 13.86, 12.07, 10.73, 11.91, 10.38, 10.0, 7.9, 8.22, 6.7, 5.4, 5.0, 5.0, 7.59, 7.9, 8.22, 7.59, 7.9, 7.27, 5.46, -0.0, -4.6, -3.92, -2.08, -0.97, 1.33, 4.2, 5.63, 6.95, 10.6, 8.22, -0.0, 2.65, 11.27, 16.48, 17.39, 17.43, 16.54, 15.05, 11.95, 12.04, 11.92, 11.2, 11.26, 11.26, 10.61, 10.61, 11.33, 11.6, 12.6, 12.72, 12.94, 11.12, 2.54, 3.04, 5.27, 5.36, 5.8, 7.19, 7.79, 9.6, 10.68, 12.45, 13.24, 13.46, 12.18, 11.56, 12.07, 11.78, 13.38, 15.65, -9.48, -9.97, -8.53, -6.97, -6.98, -6.98, -5.2, 0.0, 5.4, 8.01, 10.82, 12.52, 11.42, 9.48, 11.6, 4.1, 3.14, 4.24, 2.2, 13.57, 13.75, 14.1, 14.31, 14.51, 14.47, 15.11, 15.11, 14.66, 13.86, 12.07, 10.73, 11.4, 10.0, 9.6, 8.22, 6.45, 6.7, 2.93, 2.93, 3.96, 5.0, 4.8, 8.22, 7.59, 7.9, 6.98, 6.71, -0.0, -3.65, -6.42, -6.58, -6.45, -0.0, 6.71, 8.73, 8.73, 12.3, 14.84, -0.0, -0.0, 8.97, 11.87, 11.5, 12.04, 11.84, 11.84, 12.27, 11.62, 12.04, 11.12, 10.79, 10.87, 10.87, 10.94, 11.6, 12.18, 12.94, 13.01, 13.09, 7.19, -0.0, 3.25, 5.15, 4.97, 5.46, 6.65, 7.03, 7.79, 9.49, 12.01, 14.53, 15.62, 14.76, 12.2, 10.78, 12.14, 11.72, 14.3, -9.8, -9.08, -7.24, -6.97, -9.08, -8.22, -6.21, 0.0, 6.43, 8.91, 11.58, 12.16, 10.94, 9.17, -5.8, -0.0, 3.14, 4.98, 4.24, 13.57, 13.47, 13.67, 14.31, 14.51, 14.47, 15.11, 14.66, 14.75, 13.86, 12.07, 10.28, 10.96, 10.41, 10.6, 7.9, 6.45, 3.82, 2.93, -0.0, -0.0, 2.93, 4.24, 7.19, 6.7, 7.24, 5.98, 6.2, 5.0, 2.19, -2.97, -6.64, -7.87, -8.53, 11.16, 12.72, 11.92, 13.27, 15.59, -5.94, -2.65, 4.52, 7.28, 8.15, 8.85, 8.85, 9.62, 10.73, 12.14, 11.2, 10.35, 11.2, 10.87, 11.72, 12.3, 12.51, 12.75, 12.91, 13.36, 12.72, -0.0, -0.0, 2.91, 3.47, 4.47, 6.16, 7.32, 7.63, 8.05, 9.36, 11.54, 13.7, 14.78, 15.92, 16.36, 14.53, 12.71, 12.14, 12.07, -10.04, -9.42, -7.54, -7.54, -8.22, -6.76, -2.62, 2.24, 7.68, 9.39, 10.22, 10.12, 12.72, -9.48, -8.85, -5.6, 5.8, 4.98, 4.24, 13.57, 13.47, 13.75, 14.37, 14.31, 14.47, 14.66, 14.66, 14.3, 13.86, 12.07, 9.76, 10.52, 10.52, 12.07, 10.0, 8.53, 5.6, -0.0, -0.0, -3.14, -0.0, -0.0, 7.0, 10.75, 8.18, 8.43, 7.93, 5.8, 4.8, 2.1, -0.0, -2.39, -0.0, 5.2, 13.44, 13.28, 12.39, 11.88, -0.0, -0.0, 2.54, 6.9, 7.44, 9.44, 8.54, 9.69, 9.42, 10.04, 10.01, 10.73, 11.21, 12.04, 12.42, 12.52, 12.96, 12.96, 12.96, 12.96, 12.3, -0.0, -0.0, 1.53, 2.43, 3.79, 7.4, 9.66, 10.17, 10.69, 12.07, 12.99, 13.97, 15.27, 16.12, 16.48, 16.48, 14.18, 12.27, -0.0, -3.68, -7.54, -5.77, -5.2, -5.0, -3.21, 0.0, 3.22, 7.0, 8.68, 7.95, 3.96, -7.19, -10.73, -11.6, -8.85, 5.8, 6.0, 6.9, 13.15, 13.57, 13.75, 13.67, 14.31, 14.51, 14.66, 14.66, 14.3, 13.41, 11.18, 9.76, 10.08, 11.18, 12.52, 11.18, 12.07, -0.0, -0.0, -9.48, -9.48, 13.41, 13.41, 0.0, 15.2, 15.2, 15.65, 16.09, -0.0, 3.25, 2.37, -0.0, -0.0, 3.96, 9.3, 12.52, 12.96, 11.06, 11.03, 6.45, -0.0, -0.0, 7.2, 10.19, 11.38, 10.12, 8.32, 9.48, 8.38, 8.73, 8.22, 10.8, 12.52, 12.52, 12.44, 12.22, 12.22, 12.04, 11.45, -0.0, -0.0, 1.61, 1.53, 2.81, 5.64, 8.93, 11.38, 12.82, 14.56, 14.69, 14.71, 15.2, 15.2, 15.61, 16.09, 15.2, 14.58, 13.02, 11.72, 14.3, 0.0, -4.24, -4.15, -3.06, -1.0, 1.03, 3.22, 7.06, 7.13, 2.93, -6.7, -5.6, -11.99, -13.41, -13.41, 9.48, 6.0, 8.05, 13.23, 13.57, 13.75, 13.67, 14.31, 14.51, 14.68, 14.66, 14.3, 12.96, 11.62, 11.62, 12.96, 12.96, 12.52, 12.52, 12.96, 13.41, 13.41, -13.41, 13.41, 13.41, 0.0, 0.0, -9.17, -7.9, -6.95, -13.86, -7.0, -0.0, -0.0, -0.0, -0.0, 9.8, 11.87, 11.62, 10.6, 10.6, 10.28, 7.27, -0.0, -0.0, 4.66, 5.6, 6.97, 6.5, 6.21, 7.34, 8.58, 8.87, 9.48, 9.27, 10.8, 12.07, 11.91, 10.68, 9.67, 8.22, 0.0, -0.0, 1.96, 2.4, 2.54, 3.98, 5.81, 9.89, 13.55, 15.12, 15.65, 14.47, 14.23, 14.37, 14.75, 14.1, 13.67, 14.03, 14.75, 14.75, 13.63, 15.83, 16.05, -2.81, -2.95, -2.52, 0.0, 0.0, 2.81, 4.55, 2.71, -0.0, -2.93, -8.85, -12.52, -11.53, -6.2, 13.86, 7.69, 7.44, 13.23, 13.15, 13.75, 13.75, 14.37, 14.55, 14.68, 14.66, 14.3, 12.96, 12.52, 12.96, 12.07, 13.41, 13.86, 13.01, 12.79, 10.43, 14.75, 13.41, 0.0, 0.0, 0.0, 0.0, 0.0, -5.2, -6.64, -10.73, -10.43, -0.0, 14.75, 16.54, 15.65, 13.86, 12.07, 10.6, 10.73, 8.4, 11.62, 9.17, 2.54, 3.14, 2.82, 6.17, 6.42, 5.54, 6.16, 7.95, 9.17, 9.97, 8.72, 7.44, 7.2, 6.87, 8.53, 9.3, 9.67, 0.0, -3.68, -0.0, 1.1, 1.89, 3.88, 4.38, 6.4, 10.01, 13.18, 14.79, 14.3, 11.28, 10.43, 11.31, 12.79, 13.19, 13.44, 13.57, 14.11, 13.57, 12.22, 15.2, 17.43, 16.54, 0.0, 0.0, 0.0, 6.95, 8.55, 9.75, 11.18, 5.0, -0.0, -10.8, -12.71, -10.73, -9.8, 13.86, 6.2, 6.0, 13.23, 13.15, 13.82, 14.18, 14.37, 14.55, 14.69, 14.66, 14.3, 13.41, 12.96, 13.86, 13.86, 13.77, 14.3, 14.3, 14.84, 14.84, 14.84, 16.99, 17.43, 17.43, 16.99, 0.0, 0.0, 0.0, -10.28, -10.28, -12.96, 13.86, 0.0, 0.0, 0.0, 0.0, 0.0, 12.07, 11.62, 11.62, 11.45, 9.8, 4.52, -0.0, 2.82, 3.53, 2.6, 4.6, 6.87, 8.59, 9.09, 7.27, 5.8, 5.02, 4.91, 4.07, 3.38, 3.48, 4.29, 5.45, -0.0, -1.61, -0.0, 2.56, 3.47, 4.96, 6.37, 7.97, 9.16, 10.76, 10.18, 12.58, 8.85, 9.17, 11.29, 11.29, 12.11, 12.03, 12.79, 9.17, 10.01, 13.23, 15.05, 14.39, 14.11, 12.96, 10.4, 8.58, 8.82, 9.96, 9.6, 10.38, 10.6, -11.45, -12.52, -12.71, -13.01, -13.41, -0.0, -0.0, 13.23, 13.23, 13.82, 14.18, 14.37, 14.31, 14.51, 14.68, 14.3, 13.41, 13.41, 13.79, 14.68, 14.22, 13.33, 12.52, 12.52, 14.75, 16.09, 16.99, 16.54, 16.09, 15.65, 16.09, 13.41, 12.96, 12.52, -0.0, 11.18, 10.28, 0.0, 11.62, 11.62, 9.83, 7.59, 9.75, 10.28, 12.07, 12.52, 11.99, 7.69, -0.0, -0.0, -0.0, -0.0, 2.97, 5.52, 5.52, 5.75, 3.07, 1.84, 2.54, 1.67, 1.68, 1.68, 2.58, 4.98, 8.06, 8.1, -0.0, -0.0, 2.72, 4.66, 5.3, 4.66, 5.09, 5.91, 6.34, 6.8, 7.56, 8.97, 10.99, 12.96, 10.79, 7.78, 7.69, 9.8, 0.0, 8.85, 13.41, 13.15, 10.73, 10.87, 13.7, 11.2, 11.26, 10.4, 9.63, 10.32, 10.18, 10.73, 10.73, -11.18, -12.07, -12.27, -12.52, -12.52, -8.85, 13.23, 13.23, 13.82, 14.18, 14.1, 14.37, 14.55, 14.23, 14.3, 13.86, 13.77, 14.23, 14.68, 15.12, 15.55, 15.08, 14.16, 13.23, 12.71, 13.15, 13.41, 13.41, 13.41, 13.41, 13.41, 13.41, 13.23, 12.45, 11.71, 9.83, 10.73, 11.62, 11.62, 11.18, 9.75, 9.83, 10.28, 11.18, 11.62, 11.84, 6.94, -0.0, -0.0, -0.0, -0.0, -0.0, 1.69, 3.39, 3.07, 1.58, 0.97, 0.93, -0.0, -0.0, -0.0, 3.79, 4.66, 10.39, 8.22, 1.05, -0.0, 2.63, 4.38, 3.25, 1.72, 2.57, 4.55, 5.35, 6.6, 10.53, 11.19, 10.57, 10.17, 9.77, 12.07, 0.0, 13.86, 10.12, 11.99, 12.52, 11.62, 11.62, 12.42, 13.41, 11.92, 12.79, 13.7, 12.27, 10.41, 10.41, 9.77, 10.28, 0.0, -11.62, -11.84, -12.07, -11.45, -8.53, 13.23, 13.23, 13.39, 13.75, 14.18, 13.94, 14.11, 14.23, 14.3, 14.22, 14.22, 14.23, 14.68, 15.14, 16.01, 15.99, 15.93, 15.05, 13.99, 13.57, 13.28, 13.28, 14.55, 15.49, 15.65, 15.65, 14.3, 14.3, 13.86, 12.96, 11.62, 11.62, 12.07, 10.73, 10.28, 9.83, 9.39, 10.08, 10.14, 9.96, 5.2, -0.0, -0.0, -0.0, -0.0, -0.0, 1.4, 1.93, 1.76, 1.76, 1.76, -0.0, -0.0, -0.0, -0.0, -0.0, 6.7, 11.64, 11.44, 1.23, -0.99, 2.91, 2.91, 1.38, 0.96, 2.09, 4.26, 4.61, 6.57, 9.24, 13.08, 10.68, 11.33, 10.18, 11.18, 14.31, 11.06, 10.75, 12.27, 13.7, 13.41, 11.87, 12.39, 14.22, 12.42, 13.09, 14.07, 13.59, 10.91, 10.47, 9.68, 10.28, 10.96, 0.0, -10.18, -11.03, -8.22, -8.22, 13.44, 13.44, 13.39, 13.82, 13.75, 13.94, 14.11, 14.23, 14.22, 14.22, 13.96, 14.47, 14.47, 14.95, 15.78, 16.15, 16.41, 15.9, 15.47, 15.04, 14.42, 14.42, 14.84, 15.27, 15.47, 16.41, 15.97, 15.65, 15.2, 14.75, 13.86, 12.52, 12.07, 10.73, 10.28, 9.83, 9.75, 8.4, 10.84, 10.08, 6.44, -0.0, -0.0, -0.0, -0.0, -0.0, -0.0, -0.0, -0.0, 1.93, 2.02, -0.0, -0.0, -0.0, -0.0, 8.94, 9.83, 10.05, 8.37, 1.55, -0.0, 1.64, 1.71, -0.0, -0.0, 1.61, 3.36, 5.28, 7.44, 9.73, 11.7, 15.55, 13.62, 13.59, 14.3, 12.22, 8.53, 10.39, 12.22, 13.42, 13.89, 13.72, 12.52, 12.39, 8.53, 13.32, 13.86, 13.41, 12.02, 12.0, 11.12, 10.68, 11.18, 10.0, 0.0, -6.97, -6.97, -6.97, 13.44, 13.44, 13.39, 13.82, 13.75, 13.94, 14.11, 14.25, 14.22, 13.96, 14.4, 14.47, 14.51, 14.95, 15.39, 15.78, 16.05, 16.33, 16.33, 16.05, 14.79, 14.39, 14.39, 15.69, 15.9, 16.05, 16.44, 15.99, 15.65, 15.2, 15.08, 15.05, 13.72, 11.62, 10.28, 8.94, 9.54, 8.8, 10.84, 10.73, 7.27, 2.1, -0.0, -0.0, -0.0, -0.0, -0.0, -0.0, -0.0, -0.0, 2.17, 2.17, 2.83, 2.83, 6.01, 7.6, 7.07, 5.9, 4.58, 1.64, 1.28, 2.1, -0.0, -0.0, -0.0, 2.19, 2.49, 6.67, 8.66, 10.12, 12.13, 16.76, 18.78, 16.44, 16.99, 6.16, 7.88, 10.27, 11.68, 12.52, 12.87, 13.9, 13.43, 12.66, 11.28, 3.53, 9.96, 12.56, 13.33, 12.96, 12.52, 10.73, 11.18, 10.96, -0.0, -3.98, -5.75, -5.75, 13.44, 13.44, 13.88, 13.39, 13.32, 13.99, 14.14, 14.69, 14.03, 13.96, 13.99, 14.13, 14.56, 14.66, 15.09, 14.84, 15.18, 15.9, 16.33, 15.91, 15.49, 14.79, 14.39, 14.39, 15.47, 15.61, 15.71, 15.99, 15.99, 16.44, 16.88, 16.86, 15.47, 13.88, 8.67, 8.94, 9.11, 10.18, 10.28, 9.75, 7.59, 2.17, 3.11, 2.69, -0.0, -0.0, -0.0, -0.0, -0.0, -0.0, 4.0, 4.2, 6.64, 6.64, 6.64, 5.21, 4.4, 4.6, 5.0, 6.97, 5.0, 3.25, -0.0, -0.0, -0.0, -0.0, -0.0, 5.6, 9.17, 10.79, 13.75, 15.25, 17.81, 15.61, 10.46, 4.35, 8.21, 11.38, 12.87, 12.26, 12.65, 13.42, 13.19, 12.87, 12.71, 8.22, 3.68, 11.12, 12.89, 13.31, 12.07, 11.18, 11.18, 11.51, 11.62, -2.6, -4.15, -4.15, 13.44, 13.44, 13.88, 13.82, 13.39, 13.55, 14.14, 14.11, 14.47, 13.99, 13.48, 13.89, 14.11, 13.84, 14.11, 14.42, 15.18, 15.47, 15.9, 16.05, 15.27, 15.27, 14.38, 13.59, 15.04, 15.61, 16.15, 16.15, 16.44, 17.33, 17.33, 17.77, 17.35, 15.61, 12.39, 8.33, 8.94, 10.28, 10.73, 9.2, 6.95, 4.2, 3.8, 4.0, 4.0, 4.2, 4.2, 4.2, 4.2, 4.2, 6.64, 6.95, 8.8, 8.8, 6.95, 6.95, 6.95, 7.27, 8.93, 9.3, 6.2, 3.39, -0.0, -0.0, -0.0, -1.84, -0.0, 2.82, 8.58, 10.75, 15.65, 16.95, 19.67, 17.88, 10.59, 8.74, 12.33, 15.16, 16.41, 14.3, 13.64, 13.49, 13.44, 12.86, 12.96, 0.0, -4.1, 7.19, 9.48, 12.87, 13.41, 12.52, 11.62, 11.62, 11.62, -0.0, -3.53, -3.53, 13.44, 13.44, 13.44, 13.88, 13.39, 13.59, 13.99, 14.14, 14.55, 14.47, 13.99, 13.29, 13.99, 13.99, 13.59, 15.61, 14.18, 15.04, 15.04, 14.75, 14.84, 14.71, 13.99, 15.69, 14.11, 16.05, 13.15, 16.12, 17.2, 15.61, 17.3, 17.74, 17.35, 17.02, 15.18, 12.04, 9.04, 9.11, 9.83, 10.6, 9.2, 8.55, 9.2, 8.8, 6.95, 6.95, 4.4, 4.2, 6.64, 6.64, 6.95, 6.95, 6.95, 6.95, 6.95, 7.27, 6.95, 8.93, 7.9, 7.9, 5.95, 7.59, 4.6, 2.83, -1.84, -3.25, -0.0, 3.98, 8.8, 11.95, 13.79, 16.58, 21.92, 20.45, 17.52, 15.96, 16.04, 16.51, 17.33, 17.78, 14.28, 14.3, 13.83, 12.42, 12.91, 10.79, 0.0, 5.2, 11.6, 12.3, 13.86, 13.41, 12.07, 11.62, 12.07, 5.2, -0.0, -0.0, 13.44, 13.44, 13.62, 13.62, 13.62, 13.62, 14.03, 13.99, 14.58, 14.55, 14.23, 14.11, 13.99, 13.42, 13.02, 13.89, 13.56, 13.99, 15.34, 14.11, 16.12, 14.39, 14.39, 15.59, 15.36, 16.22, 16.05, 15.27, 16.33, 16.82, 17.26, 17.3, 16.91, 16.91, 16.48, 14.75, 12.14, 10.88, 10.2, 8.49, 8.85, 9.26, 9.21, 9.21, 8.67, 9.6, 6.95, 6.95, 8.4, 6.64, 6.64, 6.64, 6.64, 5.46, 6.32, 5.21, 7.59, 6.95, 8.55, 8.93, 7.27, 4.6, 4.4, -0.0, -1.54, -1.62, -0.0, 6.44, 9.2, 11.03, 13.07, 15.51, 22.0, 23.03, 18.65, 15.19, 13.23, 13.8, 15.08, 15.12, 15.18, 15.63, 14.67, 13.11, 11.84, 11.4, 10.18, 6.44, 9.3, 10.4, 12.96, 13.41, 12.52, 11.51, 11.84, 7.24, 2.28, 2.28, 13.44, 13.44, 13.62, 13.62, 13.62, 13.62, 13.62, 14.03, 14.6, 15.02, 14.55, 14.66, 14.7, 13.99, 13.42, 13.68, 13.81, 14.18, 11.92, 14.42, 16.12, 15.2, 14.79, 14.39, 15.91, 16.33, 15.93, 16.82, 17.26, 17.7, 17.7, 17.26, 17.26, 17.3, 16.48, 16.05, 13.81, 12.58, 11.62, 10.28, 9.32, 9.83, 9.83, 9.64, 9.11, 10.73, 6.95, 6.95, 8.4, 8.4, 8.0, 6.64, 6.64, 5.46, 5.7, 5.46, 7.27, 8.23, 9.6, 9.33, 6.95, 4.4, -0.0, -0.0, -1.84, -2.49, -0.0, 5.2, 7.9, 9.46, 11.38, 13.77, 19.57, 20.63, 18.45, 12.48, 10.43, 11.13, 12.22, 13.81, 15.08, 15.57, 15.2, 14.3, 13.41, 12.52, 10.8, 9.58, 11.35, 10.46, 12.07, 12.46, 12.22, 11.62, 11.21, 9.66, 5.2, 5.2, 13.39, 13.44, 13.44, 13.62, 13.62, 13.75, 13.75, 14.19, 14.62, 15.05, 15.02, 14.99, 14.75, 14.7, 13.99, 13.99, 13.59, 13.81, 13.56, 15.49, 16.12, 15.49, 15.07, 15.07, 15.91, 17.35, 16.76, 16.37, 16.41, 16.86, 17.3, 17.3, 17.3, 17.3, 16.48, 16.48, 15.18, 13.75, 12.52, 11.18, 10.28, 9.83, 9.39, 9.21, 8.94, 8.05, 10.28, 9.83, 9.39, 8.0, 8.0, 6.64, 6.32, 6.64, 6.95, 5.7, 7.59, 7.59, 9.6, 9.83, -0.0, -0.0, -0.0, -0.0, -3.11, -0.0, -0.0, 2.82, 3.68, 3.96, 6.65, 9.8, 15.33, 16.89, 0.0, 4.52, 8.0, 8.9, 9.47, 10.18, 12.79, 14.64, 15.54, 15.65, 15.16, 14.23, 13.67, 13.41, 12.9, 11.62, 11.33, 11.21, 12.39, 11.91, 9.97, 9.97, 9.3, 9.3, 13.15, 13.15, 13.39, 13.44, 13.62, 13.62, 14.19, 14.19, 14.64, 15.07, 15.05, 15.02, 15.46, 15.18, 14.84, 14.24, 13.89, 13.81, 14.23, 15.49, 16.12, 15.27, 14.56, 14.42, 15.49, 16.32, 16.44, 16.76, 16.48, 15.61, 16.05, 16.41, 16.41, 16.05, 16.05, 16.44, 15.99, 14.75, 12.96, 11.62, 10.73, 10.28, 9.83, 8.94, 8.05, 8.05, 9.83, 9.39, 8.94, 8.49, 8.0, 6.32, 6.32, 6.32, 6.64, 5.46, 7.27, 8.59, 9.3, 8.94, -6.64, -0.0, -0.0, -0.0, -0.0, -0.0, -0.0, -0.0, -0.0, -0.0, 2.06, 7.79, 20.38, 15.19, -9.3, -1.93, 3.22, 6.14, 7.42, 8.16, 9.39, 12.27, 14.6, 15.93, 16.05, 15.2, 14.75, 14.64, 13.7, 13.19, 12.14, 12.07, 11.71, 11.21, 10.4, 11.18, 11.46, 11.46, 13.15, 13.15, 13.15, 13.39, 13.44, 13.62, 13.62, 14.06, 14.64, 15.08, 15.07, 15.49, 15.49, 15.46, 15.25, 14.84, 14.7, 13.48, 14.65, 15.07, 15.49, 15.52, 14.94, 13.7, 14.11, 15.69, 16.32, 16.02, 16.32, 15.91, 15.71, 15.71, 15.71, 15.71, 15.71, 15.99, 15.99, 15.2, 13.41, 11.62, 10.28, 9.83, 10.28, 10.28, 8.94, 8.05, 8.8, 8.4, 8.0, 8.0, 8.0, 7.6, 6.01, 6.32, 6.32, 5.21, 5.1, 6.64, 7.9, 7.59, -0.0, -0.0, -0.0, 2.28, -0.0, 4.38, 4.1, 4.1, -3.39, -6.95, -0.0, 14.75, 23.45, 21.38, 17.5, 12.01, 0.0, 3.36, 5.48, 5.49, 6.45, 9.16, 11.53, 12.99, 13.57, 13.8, 13.63, 13.59, 13.72, 12.79, 12.83, 10.35, 10.35, 11.45, 11.46, 11.62, 11.62, 11.62, 13.15, 13.15, 13.15, 13.39, 13.39, 13.39, 13.62, 14.06, 14.5, 15.08, 15.08, 15.07, 15.3, 15.49, 15.46, 15.25, 14.84, 14.11, 14.42, 15.07, 15.07, 15.52, 15.77, 15.54, 14.7, 14.53, 15.52, 16.32, 16.32, 15.91, 16.12, 16.15, 15.27, 15.27, 15.78, 16.01, 16.01, 15.55, 14.3, 12.07, 10.28, 9.83, 9.77, 10.28, 9.83, 9.26, 7.81, 7.81, 7.44, 8.15, 7.76, 8.55, 7.07, 6.32, 6.32, 6.32, 6.32, 4.56, 5.36, 5.9, 6.95, 3.8, -0.0, 2.28, 3.53, 7.69, 3.96, 3.96, -0.0, 7.27, 10.6, 12.92, 18.56, 24.17, 20.5, 19.51, 18.96, 10.19, 3.58, 3.82, 4.4, 6.8, 9.62, 12.29, 11.99, 12.14, 12.58, 12.96, 13.15, 10.12, 11.54, 10.59, 11.62, 12.42, 11.62, 11.18, 11.18, 11.18, 13.15, 13.15, 13.15, 13.15, 13.39, 13.39, 13.39, 14.03, 14.47, 14.5, 14.94, 14.94, 15.34, 15.3, 15.49, 15.49, 15.25, 14.84, 14.53, 14.84, 14.65, 14.71, 15.77, 15.96, 15.69, 15.12, 15.12, 15.52, 16.54, 16.32, 15.91, 16.12, 16.15, 16.22, 15.78, 16.01, 16.01, 16.01, 15.65, 13.41, 11.18, 10.24, 9.79, 9.83, 10.2, 9.63, 8.8, 7.58, 7.58, 8.4, 7.96, 8.15, 8.8, 8.18, 6.32, 6.32, 6.01, 5.69, 4.96, 5.36, 6.95, 8.55, 4.96, 2.97, 5.7, 6.94, 4.48, 3.04, 10.41, 9.97, 10.18, 12.83, 14.71, 19.93, 24.05, 19.41, 18.94, 18.65, 7.98, 2.24, 3.02, 5.11, 7.66, 8.78, 10.55, 13.32, 13.31, 13.41, 13.23, 11.88, 13.59, 13.19, 12.89, 12.79, 11.18, 11.18, 11.18, 11.18, 13.15, 13.15, 13.15, 13.15, 13.39, 13.39, 13.39, 13.39, 13.82, 14.47, 14.94, 14.94, 15.38, 14.9, 15.3, 15.49, 15.3, 14.95, 14.7, 14.99, 14.84, 14.84, 14.71, 15.54, 15.69, 15.69, 15.27, 15.54, 15.77, 16.12, 16.12, 16.12, 16.12, 16.12, 16.15, 16.22, 16.22, 16.46, 16.46, 15.57, 13.8, 12.03, 10.69, 9.83, 10.04, 9.2, 8.72, 7.96, 7.58, 8.0, 8.4, 8.54, 8.54, 8.18, 8.8, 6.01, 6.01, 3.6, 3.4, 6.01, 7.51, 7.21, 7.59, 7.44, 7.59, 5.7, 6.97, 10.41, 10.28, 10.28, 11.02, 11.53, 13.86, 16.99, 18.84, 22.55, 19.68, 18.93, 15.97, 0.0, 1.25, 3.58, 4.52, 5.27, 6.21, 10.18, 13.07, 13.75, 13.86, 13.86, 13.86, 15.2, 14.42, 13.7, 12.79, 11.35, 10.27, 10.27, 13.05, 13.05, 13.15, 13.15, 13.15, 13.39, 13.39, 13.39, 13.82, 13.82, 14.47, 14.94, 14.94, 14.9, 14.9, 14.86, 15.3, 15.25, 14.84, 14.53, 14.84, 14.84, 14.3, 14.53, 15.12, 15.27, 15.27, 15.27, 15.69, 15.54, 15.36, 15.69, 16.12, 16.12, 16.12, 16.15, 16.22, 16.9, 16.9, 16.01, 14.69, 12.92, 11.14, 9.83, 10.23, 8.99, 8.99, 8.34, 7.96, 8.4, 8.15, 8.54, 8.93, 8.93, 8.93, 8.18, 7.44, 7.6, 5.69, 7.44, 7.67, 7.44, 8.18, 7.51, 7.81, 7.9, 9.58, 9.97, 9.33, 9.55, 11.06, 12.07, 12.52, 13.41, 15.87, 18.08, 22.25, 18.82, 15.02, 0.0, -1.76, 3.93, 5.11, 4.24, 4.9, 6.94, 10.09, 12.79, 14.11, 14.11, 13.67, 14.6, 16.09, 14.27, 13.5, 12.18, 10.73, 10.73, 13.05, 13.05, 13.05, 13.15, 13.15, 13.39, 13.39, 13.82, 13.82, 13.82, 14.25, 14.9, 15.38, 15.38, 15.34, 14.86, 14.86, 14.86, 14.53, 14.28, 14.53, 14.84, 14.84, 14.53, 14.7, 14.84, 14.95, 15.68, 16.05, 16.05, 15.96, 15.96, 15.84, 16.22, 16.22, 16.22, 16.46, 16.9, 16.9, 16.46, 15.58, 13.36, 11.58, 9.83, 9.26, 9.33, 9.8, 9.86, 9.86, 8.4, 9.21, 8.54, 8.54, 8.93, 8.73, 9.32, 9.6, 8.55, 7.81, 7.81, 8.3, 8.48, 8.05, 7.81, 9.2, 10.8, 10.09, 8.23, 9.33, 9.55, 10.0, 11.62, 12.44, 12.14, 13.02, 15.79, 18.55, 18.78, 18.35, 17.28, 11.06, 2.2, 6.8, 6.4, 4.1, 5.8, 7.78, 11.09, 12.27, 13.28, 14.03, 14.75, 14.18, 14.95, 13.86, 12.17, 10.94, 10.94, 13.05, 13.05, 13.05, 13.05, 13.15, 13.39, 13.39, 13.82, 13.82, 13.82, 13.82, 14.69, 14.9, 15.38, 15.82, 15.34, 14.86, 14.86, 14.53, 14.42, 14.7, 14.99, 14.99, 14.84, 14.53, 14.7, 14.42, 15.25, 15.68, 15.68, 15.61, 15.61, 15.83, 15.83, 16.46, 16.47, 16.54, 16.54, 16.92, 16.9, 16.03, 14.25, 12.47, 9.83, 8.05, 9.54, 11.21, 10.91, 11.37, 10.94, 10.21, 8.58, 8.8, 8.34, 8.72, 9.6, 9.6, 10.05, 9.96, 9.13, 8.77, 8.3, 7.07, 8.4, 8.91, 9.6, 7.9, 8.53, 8.91, 9.33, 9.7, 10.18, 12.39, 16.48, 13.42, 14.17, 15.59, 15.36, 17.86, 19.96, 19.67, 18.13, 14.13, 11.72, 11.09, 11.44, 9.8, 11.53, 12.39, 13.88, 14.3, 13.57, 13.48, 14.65, 13.29, 12.65, 11.69, 11.69, 12.63, 12.63, 13.05, 13.05, 13.05, 13.39, 13.39, 13.82, 13.82, 14.25, 14.25, 13.82, 14.69, 14.94, 15.38, 15.34, 15.3, 15.3, 15.04, 14.95, 14.84, 14.7, 14.99, 14.99, 14.99, 14.53, 14.28, 13.99, 14.81, 15.25, 15.68, 15.46, 15.43, 15.59, 16.09, 16.09, 16.54, 16.54, 16.54, 16.92, 16.47, 15.14, 12.92, 10.69, 8.94, 10.2, 11.92, 11.9, 11.9, 11.72, 10.79, 8.72, 8.58, 8.21, 8.6, 9.4, 9.8, 10.6, 10.05, 10.18, 8.91, 8.72, 8.0, 8.67, 8.82, 7.51, 4.4, 5.06, 8.03, 9.2, 6.95, 8.93, 11.44, 16.48, 19.99, 16.14, 12.96, 12.16, 12.79, 18.41, 21.46, 20.99, 18.2, 14.95, 15.47, 16.0, 15.54, 15.12, 13.86, 13.41, 13.01, 12.45, 12.62, 13.62, 13.84, 13.34, 12.79, 12.79, 12.52, 12.52, 12.63, 13.05, 13.05, 13.32, 13.32, 13.82, 13.82, 14.25, 14.25, 14.25, 14.25, 15.12, 15.38, 15.38, 15.34, 15.74, 15.47, 15.47, 15.02, 14.86, 14.7, 14.99, 14.99, 14.53, 14.28, 13.57, 15.27, 14.31, 15.46, 15.91, 16.04, 15.65, 15.65, 16.09, 16.09, 16.54, 16.54, 16.54, 16.47, 15.58, 13.81, 11.14, 10.25, 11.18, 12.51, 12.65, 11.88, 11.2, 9.55, 8.3, 8.3, 8.0, 8.72, 8.99, 9.4, 10.18, 10.18, 10.6, 10.18, 8.72, 8.49, 8.33, 8.3, 6.01, 2.99, 4.2, 8.03, 8.38, 8.43, 9.45, 11.72, 15.27, 19.15, 21.66, 11.7, 2.72, 8.61, 13.59, 18.31, 18.76, 17.43, 16.08, 16.53, 16.53, 16.99, 16.09, 14.3, 12.83, 12.3, 11.97, 12.38, 12.99, 13.19, 13.19, 12.79, 12.79, 12.52, 12.52, 12.52, 13.05, 13.05, 13.32, 13.32, 13.75, 13.75, 14.25, 14.25, 14.25, 14.25, 14.25, 15.18, 15.38, 15.34, 15.34, 15.04, 15.47, 15.02, 14.86, 14.65, 14.99, 14.56, 14.56, 14.11, 13.57, 13.15, 15.27, 14.55, 15.43, 16.04, 16.09, 16.09, 16.09, 16.09, 16.54, 16.54, 16.54, 16.48, 16.03, 14.26, 12.03, 10.69, 11.62, 12.51, 12.39, 11.88, 10.4, 8.72, 8.4, 8.0, 8.0, 8.72, 9.13, 9.13, 9.75, 10.18, 10.6, 10.18, 7.89, 8.4, 7.2, 6.01, 5.69, 4.46, 3.8, 6.95, 9.6, 9.2, 10.65, 11.62, 14.3, 18.88, 24.35, 18.63, -6.0, 2.81, 11.42, 15.6, 16.36, 16.07, 16.51, 16.92, 17.82, 17.87, 16.54, 14.28, 12.83, 11.87, 11.14, 12.1, 12.93, 13.47, 13.62, 12.99, 12.99, 12.52, 12.52, 12.52, 12.52, 13.05, 13.32, 13.32, 13.75, 13.75, 14.18, 14.25, 14.69, 14.25, 14.25, 14.69, 15.38, 15.38, 15.34, 15.12, 15.47, 15.16, 15.44, 14.86, 15.12, 14.56, 14.56, 14.11, 13.86, 14.1, 14.37, 14.37, 14.99, 15.59, 15.59, 16.09, 16.09, 16.09, 16.09, 16.54, 16.54, 16.48, 16.48, 14.99, 12.79, 11.58, 11.62, 12.08, 12.62, 12.62, 10.99, 9.24, 8.82, 8.4, 8.55, 9.24, 9.24, 9.55, 9.2, 9.4, 9.8, 9.97, 7.87, 7.15, 7.51, 5.31, 5.31, 3.99, 5.15, 6.64, 9.2, 8.8, 11.18, 12.07, 13.41, 17.88, 22.86, 19.57, 18.78, 2.65, 8.97, 13.54, 14.75, 16.1, 16.86, 16.94, 17.34, 17.81, 16.08, 13.86, 12.48, 11.45, 11.2, 12.08, 12.63, 13.5, 13.89, 13.47, 13.47, 12.52, 12.52, 12.52, 12.52, 12.93, 13.32, 13.32, 13.75, 14.18, 14.18, 14.69, 14.69, 14.69, 14.25, 14.47, 14.94, 14.94, 14.94, 14.69, 15.12, 15.47, 15.16, 15.02, 14.86, 14.7, 14.56, 14.11, 13.86, 13.99, 14.53, 14.81, 15.02, 15.02, 15.15, 15.59, 15.65, 16.09, 16.09, 16.54, 16.54, 16.54, 16.05, 15.15, 13.36, 12.07, 11.58, 12.14, 12.38, 12.21, 12.18, 10.08, 9.66, 8.95, 8.95, 8.95, 8.95, 9.2, 9.2, 8.82, 9.97, 9.67, 9.97, 7.51, 6.64, 5.63, 5.36, 5.03, 6.63, 7.76, 8.58, 8.95, 10.4, 12.14, 13.01, 15.6, 17.28, 18.58, 17.59, 19.37, 16.91, 12.5, 13.23, 15.44, 16.47, 16.09, 16.09, 16.07, 14.3, 13.41, 12.79, 11.62, 10.35, 11.87, 12.44, 13.34, 13.8, 13.67, 13.67, 12.52, 12.52, 12.52, 12.52, 13.25, 13.25, 13.75, 13.75, 14.18, 14.18, 14.69, 14.69, 14.9, 14.47, 14.47, 14.9, 14.94, 14.94, 14.75, 15.12, 15.12, 15.16, 15.02, 14.86, 14.7, 14.56, 14.56, 13.7, 13.86, 14.53, 14.81, 14.81, 14.58, 14.58, 14.7, 15.15, 15.65, 15.65, 16.09, 16.09, 16.09, 16.09, 15.65, 13.41, 12.07, 11.59, 11.71, 12.3, 12.72, 12.18, 11.21, 9.66, 8.95, 8.95, 8.95, 8.95, 9.36, 8.82, 8.82, 9.97, 10.35, 9.3, 8.43, 5.69, 5.31, 6.64, 6.44, 7.89, 8.48, 7.76, 8.93, 7.27, 10.59, 12.39, 14.37, 15.34, 16.27, 17.97, 19.84, 22.44, 19.2, 13.99, 11.8, 14.03, 13.86, 13.86, 13.86, 13.41, 12.96, 12.96, 12.58, 11.62, 12.14, 12.71, 12.96, 13.41, 13.63, 13.63, 12.1, 12.1, 12.52, 12.52, 13.25, 13.25, 13.75, 13.75, 14.18, 14.18, 14.61, 14.9, 14.9, 14.9, 14.47, 14.47, 14.75, 14.75, 14.75, 15.18, 15.12, 15.12, 15.16, 14.61, 14.44, 14.28, 14.56, 13.7, 13.86, 14.42, 14.53, 14.81, 14.37, 14.58, 14.55, 14.7, 14.7, 15.15, 15.65, 16.09, 16.09, 16.09, 15.2, 12.96, 10.25, 10.7, 11.49, 12.14, 12.3, 12.51, 11.64, 10.5, 9.36, 8.95, 8.95, 8.95, 9.36, 9.03, 9.2, 9.58, 10.35, 10.04, 8.43, 6.01, 6.01, 7.51, 6.9, 7.28, 7.67, 6.98, 5.46, 5.7, 8.85, 13.58, 15.8, 14.47, 14.75, 17.43, 20.54, 22.74, 20.78, 16.87, 15.2, 6.2, 13.44, 13.86, 13.86, 13.41, 13.41, 13.41, 12.96, 12.52, 12.52, 12.96, 12.96, 12.96, 12.96, 13.41, 12.39, 12.39, 12.82, 12.82, 13.25, 13.25, 13.75, 13.75, 14.18, 14.18, 14.61, 14.61, 14.9, 14.9, 14.9, 14.47, 14.25, 14.75, 14.79, 15.18, 15.12, 15.12, 14.84, 15.16, 14.21, 13.84, 13.7, 13.7, 13.7, 13.43, 14.42, 14.1, 14.37, 14.58, 14.58, 14.7, 14.26, 15.15, 15.15, 15.6, 15.65, 16.09, 14.75, 12.07, 9.81, 10.7, 11.58, 12.14, 12.6, 12.51, 12.08, 10.92, 9.77, 8.95, 8.95, 8.95, 9.36, 9.36, 9.58, 9.58, 10.35, 10.04, 8.38, 6.79, 5.69, 7.15, 6.79, 5.69, 6.01, 4.71, 2.17, 2.82, 7.85, 12.27, 16.64, 17.82, 14.3, 15.68, 18.7, 20.23, 18.33, 16.84, 17.2, 0.0, 0.0, 13.15, 13.86, 9.48, 0.0, 0.0, 5.8, 11.6, 11.87, 12.14, 12.14, 12.27, 12.39, 12.96, 12.46, 12.46, 12.39, 12.82, 13.25, 13.25, 13.75, 13.75, 14.18, 14.18, 14.61, 14.61, 14.69, 14.69, 14.69, 14.25, 14.25, 14.25, 14.79, 14.79, 15.18, 15.12, 15.12, 14.84, 14.38, 14.03, 13.86, 13.7, 13.28, 12.79, 13.43, 13.62, 14.1, 14.37, 14.14, 14.58, 14.26, 14.26, 15.15, 15.15, 15.6, 15.65, 14.75, 12.07, 10.73, 12.03, 13.67, 13.8, 13.44, 13.02, 12.3, 11.45, 9.9, 9.49, 8.95, 8.95, 9.36, 9.6, 9.58, 9.58, 10.35, 10.04, 7.51, 7.51, 6.32, 6.64, 5.31, 6.01, 6.01, 3.52, 0.99, 2.04, 7.44, 10.09, 13.05, 16.48, 18.6, 17.77, 16.86, 15.65, 14.53, 13.23, 12.64, -9.92, 0.0, 9.8, 11.16, 9.48, 0.0, 0.0, 0.0, 3.96, 8.85, 8.85, 10.41, 9.66, 10.8, 12.39, 12.46, 12.46, 12.46, 12.89, 12.89, 13.32, 13.32, 13.75, 13.75, 14.18, 14.18, 14.18, 14.69, 14.69, 14.25, 14.25, 14.25, 14.25, 14.31, 14.79, 14.75, 14.69, 14.69, 15.12, 14.84, 14.21, 13.62, 13.44, 13.28, 12.79, 12.79, 12.95, 13.62, 13.77, 13.67, 13.94, 14.14, 13.7, 14.26, 14.71, 14.71, 15.15, 14.26, 12.48, 11.59, 12.96, 14.75, 14.53, 13.19, 13.44, 13.15, 11.87, 9.9, 9.08, 9.08, 9.24, 9.66, 9.6, 9.6, 10.17, 10.8, 10.04, 9.77, 7.87, 7.51, 7.51, 6.01, 6.64, 4.37, 2.28, 1.04, 3.3, 7.59, 8.93, 10.09, 12.93, 16.55, 21.21, 21.34, 16.51, 13.02, 0.0, -13.91, -13.28, -7.4, 4.1, 4.1, 5.8, 0.0, 0.0, 0.0, 2.45, 4.65, 7.51, 7.82, 8.53, 8.53, 8.53, 12.04, 12.04, 12.46, 12.46, 12.89, 12.89, 13.32, 13.75, 13.75, 13.75, 14.18, 14.25, 14.25, 14.25, 14.25, 14.25, 14.25, 14.25, 14.31, 14.36, 14.79, 14.75, 14.69, 14.69, 14.42, 14.42, 13.39, 13.2, 13.02, 12.87, 12.39, 11.88, 12.56, 12.79, 13.2, 13.25, 13.25, 13.07, 13.5, 14.14, 14.14, 14.16, 13.72, 12.39, 11.95, 13.41, 14.31, 14.28, 13.28, 13.02, 13.01, 11.45, 9.33, 8.91, 9.33, 9.24, 9.6, 9.6, 10.17, 10.17, 10.4, 10.04, 9.67, 8.23, 7.87, 7.51, 7.51, 6.64, 2.69, 1.33, 2.58, 5.59, 8.58, 7.47, 9.62, 10.86, 16.06, 21.79, 23.66, 21.1, 19.41, 19.34, 21.68, -16.45, -14.51, -6.0, -5.6, 0.0, 0.0, 0.0, 0.0, 2.06, 3.96, 3.96, 6.7, 7.54, 7.54, 7.54, 12.04, 12.04, 12.46, 12.46, 12.89, 12.89, 13.32, 13.32, 13.32, 13.75, 13.75, 14.25, 14.25, 14.25, 14.25, 14.25, 14.25, 14.25, 14.25, 14.36, 14.79, 14.75, 14.69, 14.69, 14.69, 14.42, 13.99, 12.99, 12.79, 12.62, 11.99, 11.72, 11.5, 11.88, 12.56, 12.38, 12.38, 12.82, 12.82, 12.82, 13.55, 13.55, 13.11, 11.95, 11.51, 12.96, 14.11, 13.44, 12.45, 12.08, 11.64, 10.84, 8.91, 8.91, 9.33, 9.24, 9.96, 10.08, 10.5, 10.17, 10.4, 10.04, 10.04, 10.35, 8.23, 7.87, 5.63, 5.9, 2.83, 2.83, 4.6, 6.32, 6.64, 7.81, 8.49, 10.41, 12.99, 18.37, 19.99, 21.33, 20.36, 20.55, 22.74, 24.59, -17.99, -14.75, -11.87, -9.17, 0.0, 3.14, 2.45, 2.06, 3.32, 4.65, 2.93, 3.82, 3.82, 3.82, 12.09, 12.09, 12.46, 12.46, 12.89, 12.89, 13.32, 13.32, 13.75, 13.75, 13.75, 14.25, 14.25, 14.25, 14.25, 14.25, 14.25, 14.25, 14.25, 14.31, 14.79, 14.75, 14.75, 14.69, 14.69, 14.42, 13.99, 13.57, 13.05, 12.52, 12.21, 11.99, 11.72, 11.16, 11.16, 11.5, 11.8, 12.38, 12.72, 12.82, 12.82, 13.07, 12.68, 11.51, 11.06, 12.07, 13.01, 12.6, 12.45, 11.64, 10.78, 9.97, 8.67, 9.15, 9.54, 9.66, 9.66, 10.08, 10.5, 10.0, 9.58, 9.67, 10.04, 9.67, 9.66, 7.87, 5.36, 4.6, 2.97, 4.83, 5.21, 4.6, 5.21, 7.27, 8.58, 9.86, 12.21, 13.37, 16.8, 16.19, 18.05, 22.17, 24.07, 22.73, -15.49, -19.08, -11.38, 0.0, 5.8, 4.65, 5.8, 0.0, -3.96, -10.8, -10.8, -11.62, -11.62, -11.62, 12.09, 12.09, 12.53, 12.46, 12.46, 12.89, 12.89, 13.32, 13.75, 13.75, 13.82, 13.82, 14.25, 14.25, 14.25, 14.25, 14.25, 14.25, 14.25, 14.31, 14.15, 14.75, 14.75, 14.69, 14.69, 14.42, 13.99, 13.57, 13.15, 13.05, 12.52, 11.97, 11.8, 11.33, 11.33, 11.33, 11.6, 11.6, 12.6, 12.3, 12.3, 12.63, 12.81, 11.49, 11.14, 12.07, 12.51, 12.18, 12.04, 11.56, 10.78, 9.7, 8.82, 9.15, 9.54, 9.24, 9.92, 10.08, 10.5, 10.0, 9.58, 9.58, 10.04, 10.04, 8.94, 8.23, 6.32, 5.1, 6.64, 5.63, 4.83, 3.87, 5.21, 8.0, 9.1, 10.0, 11.62, 12.79, 12.56, 13.71, 15.75, 20.25, 24.8, 22.07, 21.77, -15.8, 0.0, 9.48, 7.19, 9.17, -8.85, -11.87, -12.07, -12.07, -11.62, -10.8, -10.8, -10.8, 12.09, 12.09, 12.53, 12.53, 12.96, 12.89, 12.89, 13.32, 13.32, 13.75, 13.82, 13.82, 14.25, 14.25, 14.25, 14.25, 14.25, 14.25, 14.25, 14.08, 14.15, 14.51, 14.51, 14.69, 14.69, 14.69, 14.25, 13.82, 13.15, 13.15, 12.72, 12.21, 12.1, 11.87, 11.76, 11.62, 11.62, 11.62, 12.18, 12.51, 12.58, 12.79, 12.81, 11.93, 11.14, 12.03, 12.08, 11.62, 11.99, 11.13, 10.56, 9.7, 8.82, 9.26, 9.49, 9.49, 9.92, 10.35, 10.38, 10.0, 9.6, 10.0, 10.16, 10.04, 9.3, 8.23, 7.44, 7.44, 5.46, 5.29, 3.11, 4.4, 6.95, 8.54, 9.6, 10.0, 10.55, 11.12, 10.47, 10.3, 13.14, 19.04, 22.78, 22.93, 21.36, 0.0, -15.25, 0.0, -12.96, -8.53, -11.87, -12.52, -11.71, -11.62, -11.62, -11.71, -11.71, -11.71, 12.09, 12.09, 12.53, 12.46, 12.46, 12.89, 13.32, 13.32, 13.32, 13.32, 13.82, 13.82, 13.82, 14.25, 14.25, 14.25, 14.25, 14.25, 14.25, 13.65, 13.65, 14.15, 14.51, 14.75, 14.69, 14.69, 14.25, 13.82, 13.39, 13.39, 12.96, 12.72, 12.3, 12.04, 12.2, 11.76, 11.76, 12.14, 12.14, 12.14, 12.35, 12.37, 12.37, 11.93, 11.14, 12.03, 12.08, 11.62, 11.56, 11.0, 10.68, 10.25, 9.36, 8.82, 9.06, 9.7, 9.92, 9.92, 9.96, 9.6, 9.6, 9.6, 10.16, 10.24, 8.82, 8.58, 6.64, 5.21, 5.46, 6.95, 7.27, 6.95, 9.2, 8.93, 8.37, 8.15, 9.3, 8.53, 9.17, 9.97, 11.68, 16.8, 18.92, 22.32, 21.35, 20.83, -17.19, -12.71, -8.85, -7.24, -10.8, -11.62, -11.62, -11.18, -12.07, -12.14, -12.14, -12.14, 12.04, 12.04, 12.46, 12.46, 12.46, 12.89, 13.32, 13.32, 13.32, 13.82, 13.82, 13.82, 14.25, 14.25, 14.25, 14.25, 14.25, 14.25, 13.99, 13.99, 14.08, 14.15, 14.51, 14.51, 14.69, 14.25, 14.25, 13.82, 13.39, 12.96, 12.96, 12.96, 12.53, 12.27, 12.27, 11.96, 11.95, 11.95, 11.95, 12.37, 12.48, 12.48, 12.48, 11.93, 11.62, 12.47, 12.51, 11.99, 11.4, 10.68, 10.24, 9.8, 9.8, 9.36, 9.26, 9.7, 9.68, 9.66, 9.55, 9.96, 9.96, 9.96, 9.77, 10.24, 9.46, 8.38, 7.68, 6.64, 6.95, 6.64, 9.33, 9.33, 8.82, 8.38, 6.87, 5.69, 6.71, 7.65, 8.32, 9.64, 10.73, 13.11, 16.56, 19.94, 22.79, 21.81, -13.86, -12.79, -11.5, -9.17, -10.04, -12.07, -12.52, -12.96, -12.52, -12.96, -12.96, -12.96, 12.04, 12.04, 12.46, 12.46, 12.46, 12.89, 13.32, 13.32, 13.32, 13.82, 13.82, 13.82, 14.25, 14.25, 14.25, 14.25, 14.25, 13.99, 13.99, 13.99, 14.08, 14.15, 14.58, 14.51, 14.25, 14.25, 14.18, 13.82, 13.39, 13.39, 12.96, 12.96, 12.71, 12.27, 12.41, 12.04, 12.04, 12.04, 11.95, 12.04, 12.03, 12.03, 12.04, 12.03, 12.07, 12.31, 12.51, 11.99, 11.57, 10.73, 10.28, 9.83, 9.8, 8.91, 9.36, 9.26, 9.49, 9.13, 9.13, 9.55, 9.55, 9.55, 9.8, 10.4, 10.48, 9.97, 7.27, 6.95, 8.23, 7.87, 7.87, 6.64, 4.2, 3.82, 2.95, 5.0, 5.92, 6.16, 7.95, 9.69, 10.85, 10.85, 13.1, 18.2, 25.32, 12.89, -14.64, -12.35, -12.45, -11.53, -9.8, -13.41, -12.72, -12.39, 13.41, 12.96, 12.96, 12.96, 12.04, 12.04, 12.04, 12.46, 12.46, 12.46, 12.89, 13.32, 13.32, 13.82, 13.82, 14.25, 14.25, 14.25, 14.25, 13.99, 13.99, 13.99, 13.99, 13.99, 13.99, 14.08, 14.15, 14.08, 13.99, 14.25, 14.18, 13.75, 13.39, 13.39, 12.96, 12.96, 12.71, 12.85, 12.41, 11.96, 11.95, 11.51, 11.51, 11.49, 12.03, 12.03, 11.93, 11.59, 12.07, 12.31, 12.51, 12.31, 12.02, 11.18, 10.28, 9.83, 9.83, 8.91, 9.36, 9.24, 9.06, 9.49, 9.49, 9.42, 9.85, 9.75, 9.8, 10.0, 10.8, 10.09, 8.58, 8.82, 8.03, 6.14, 5.21, 6.64, 5.63, -0.0, -0.0, 2.95, 3.92, 6.16, 7.56, 9.42, 10.62, 10.48, 12.39, 17.05, 29.26, 22.35, -11.06, -12.07, -12.52, 14.3, 0.0, 0.0, 0.0, 9.8, 12.72, 12.72, 12.72, 12.72, 12.04, 12.04, 12.04, 12.46, 12.46, 12.46, 12.89, 13.32, 13.32, 13.75, 13.82, 14.25, 14.25, 13.99, 13.99, 13.99, 13.99, 13.99, 13.99, 13.99, 13.99, 13.99, 14.31, 14.31, 14.31, 14.25, 13.75, 13.75, 13.32, 12.96, 12.96, 12.53, 12.71, 12.71, 12.41, 11.96, 11.95, 11.51, 11.49, 11.49, 11.59, 11.49, 11.49, 11.59, 11.62, 11.44, 11.88, 11.88, 12.02, 11.18, 10.73, 10.28, 9.83, 9.36, 8.91, 8.8, 9.06, 9.06, 9.06, 9.42, 9.42, 9.75, 9.75, 10.46, 10.4, 10.48, 10.35, 9.58, 7.27, 4.4, 5.46, 7.27, 5.7, 1.76, -0.0, 1.52, 4.4, 6.5, 7.9, 8.82, 9.53, 10.56, 12.96, 24.72, 29.81, 20.94, 14.13, -11.12, -5.8, 6.2, 7.59, 6.6, 5.48, 14.3, 11.09, 9.8, 9.8, 9.8, 12.04, 12.04, 12.04, 12.04, 12.46, 12.46, 12.89, 12.89, 13.32, 13.32, 13.82, 13.82, 13.99, 13.99, 13.99, 13.99, 13.99, 13.99, 13.99, 14.42, 13.99, 13.99, 14.08, 14.31, 14.31, 13.82, 13.75, 13.75, 13.32, 12.96, 12.96, 12.71, 12.71, 12.27, 12.39, 11.95, 11.95, 11.51, 11.49, 11.05, 11.49, 11.49, 11.49, 11.58, 11.18, 11.02, 11.44, 11.57, 11.62, 11.18, 10.73, 10.28, 9.83, 9.8, 9.35, 8.8, 8.8, 8.8, 9.24, 9.21, 9.21, 9.6, 9.75, 10.05, 10.46, 10.09, 10.48, 9.3, 6.17, 6.95, 6.95, 5.29, 2.95, 3.39, 1.84, 1.76, 3.07, 6.5, 7.27, 8.15, 8.94, 10.73, 20.46, 22.99, 29.0, 20.16, 0.0, -7.69, -1.9, 3.36, 6.6, 5.48, 10.43, 7.93, 7.36, 6.4, 6.4, 6.4, 12.04, 12.04, 12.04, 12.04, 12.04, 12.46, 12.89, 13.32, 13.32, 13.32, 13.15, 13.57, 13.99, 13.99, 13.99, 13.99, 13.99, 13.99, 13.99, 14.42, 14.42, 13.99, 13.99, 14.31, 13.88, 13.82, 13.82, 13.32, 13.55, 13.11, 13.15, 12.71, 12.68, 12.24, 12.24, 11.95, 11.95, 11.49, 11.49, 11.05, 11.05, 11.49, 11.49, 11.14, 11.18, 10.69, 10.69, 10.68, 10.73, 10.73, 10.73, 10.28, 9.83, 9.79, 9.79, 9.24, 8.8, 8.8, 8.8, 9.21, 9.21, 9.16, 9.6, 9.97, 10.27, 10.68, 10.68, 8.59, 7.59, 7.87, 5.9, 3.82, 3.82, 3.98, 2.1, 2.49, 3.53, 6.2, 7.9, 8.49, 9.46, 10.04, 17.8, 23.6, 27.68, 19.66, -12.52, -11.16, -8.31, -5.31, -4.66, -0.0, 2.98, 2.89, 5.31, 6.4, 6.4, 6.4, 12.04, 12.04, 12.04, 12.04, 12.04, 12.04, 12.46, 12.89, 12.63, 12.63, 13.05, 13.57, 13.57, 13.99, 13.99, 13.99, 13.99, 13.99, 13.99, 14.42, 14.42, 14.42, 14.42, 13.99, 13.65, 13.57, 13.82, 13.32, 13.55, 13.11, 12.68, 12.68, 12.24, 12.24, 12.24, 11.8, 11.95, 11.49, 11.05, 11.05, 11.05, 11.05, 11.05, 11.18, 10.73, 10.69, 10.69, 10.73, 10.28, 10.28, 10.28, 10.28, 10.28, 9.79, 9.79, 9.36, 9.36, 8.9, 8.9, 8.77, 9.21, 9.16, 9.6, 9.97, 10.32, 10.75, 10.0, 9.3, 8.03, 6.95, 4.6, 4.6, 4.8, 5.0, 5.0, 5.7, 5.46, 6.17, 8.38, 8.73, 9.09, 12.21, 14.58, 22.25, 26.52, 29.3, 0.0, -12.96, -12.87, -13.19, -9.12, -0.0, 1.94, 4.81, 6.6, 7.1, 7.1, 7.1, 12.04, 12.04, 12.04, 12.04, 12.46, 12.46, 12.46, 12.21, 12.63, 12.63, 13.05, 13.57, 13.57, 13.99, 13.99, 13.99, 13.99, 13.99, 13.99, 13.99, 14.42, 14.42, 14.42, 13.99, 13.65, 13.65, 13.82, 13.32, 13.11, 13.11, 12.68, 12.24, 12.24, 12.24, 11.8, 11.8, 11.93, 11.49, 11.49, 11.05, 11.05, 10.89, 11.05, 11.18, 10.73, 10.69, 10.73, 10.28, 10.28, 10.28, 10.28, 10.28, 10.28, 9.83, 9.83, 9.83, 9.39, 8.9, 8.9, 8.9, 8.9, 9.33, 9.6, 9.97, 9.97, 10.32, 10.18, 9.6, 8.23, 7.27, 4.6, 5.95, 5.95, 2.71, 4.8, 7.27, 5.46, 6.95, 8.82, 8.93, 9.7, 11.21, 13.67, 18.33, 24.25, 30.04, 27.53, -15.69, -14.55, -9.12, -2.98, -1.89, 3.79, 7.0, 6.6, 7.16, 7.16, 7.16, 12.04, 12.04, 12.04, 12.04, 12.46, 12.46, 12.21, 12.63, 12.63, 12.63, 13.05, 13.05, 13.57, 13.99, 13.99, 13.89, 13.89, 13.89, 13.99, 14.42, 14.42, 14.42, 14.42, 13.99, 13.65, 13.65, 13.39, 13.32, 13.11, 12.68, 12.68, 12.24, 12.24, 11.8, 11.8, 11.8, 11.49, 11.49, 11.49, 11.05, 10.89, 11.05, 11.14, 10.73, 10.73, 10.73, 10.73, 10.28, 10.28, 10.28, 10.28, 9.83, 10.28, 9.83, 9.83, 9.83, 9.39, 9.39, 8.9, 8.45, 8.9, 8.89, 9.33, 9.54, 9.54, 9.46, 9.75, 9.55, 8.23, 8.93, 7.59, 7.59, 5.95, 3.53, 5.95, 7.27, 6.95, 6.64, 7.87, 8.38, 10.27, 11.13, 13.7, 16.96, 21.88, 24.52, 25.21, 21.9, -11.06, -15.65, -3.07, -0.0, 3.39, 7.6, 7.82, 8.46, 8.46, 8.46, 12.04, 12.04, 12.04, 12.04, 12.46, 12.46, 12.21, 12.63, 12.63, 12.63, 13.05, 13.05, 13.47, 13.47, 13.89, 13.47, 13.47, 13.89, 13.89, 13.89, 14.31, 14.42, 14.42, 14.42, 13.57, 13.23, 13.15, 13.32, 12.89, 12.63, 12.63, 12.24, 12.24, 11.8, 11.8, 11.8, 11.76, 11.49, 11.49, 10.89, 10.89, 11.05, 10.69, 10.73, 10.73, 10.73, 10.28, 10.28, 10.24, 10.24, 10.28, 9.83, 9.83, 9.83, 9.83, 9.39, 9.39, 9.39, 9.39, 8.94, 8.45, 8.44, 8.89, 8.87, 9.32, 9.03, 9.33, 9.13, 8.8, 9.54, 9.54, 7.59, 7.59, 4.6, 7.27, 9.2, 9.75, 9.33, 9.83, 9.2, 10.75, 11.57, 13.37, 16.54, 20.56, 22.35, 22.73, 20.75, 19.67, 11.7, -0.0, -0.0, 1.56, 5.98, 8.4, 9.91, 9.91, 9.91, 12.04, 12.04, 12.04, 12.04, 12.04, 12.21, 12.21, 12.21, 12.63, 12.63, 13.05, 13.05, 13.47, 13.47, 13.47, 13.47, 13.47, 13.47, 13.89, 13.89, 13.89, 14.31, 14.42, 13.99, 13.57, 13.15, 13.15, 12.89, 12.89, 12.63, 12.63, 12.2, 11.8, 11.8, 11.8, 11.76, 11.76, 11.33, 11.33, 11.33, 10.89, 11.05, 11.14, 10.73, 10.73, 10.73, 10.25, 10.24, 10.24, 10.24, 9.83, 9.83, 9.83, 9.83, 9.83, 9.39, 9.39, 8.94, 9.39, 8.94, 8.94, 8.49, 8.44, 8.87, 8.87, 9.29, 9.29, 9.26, 9.39, 9.83, 9.33, 11.18, 11.18, 11.18, 9.83, 10.28, 10.28, 10.28, 10.28, 10.73, 11.06, 12.07, 13.41, 16.09, 20.09, 21.83, 20.4, 19.79, 18.31, 18.74, 16.54, -0.0, -0.0, 5.23, 9.49, 11.06, 11.06, 11.06, 11.96, 11.96, 12.46, 12.46, 12.21, 12.21, 12.21, 12.21, 12.21, 12.63, 12.63, 13.05, 13.47, 13.47, 13.47, 13.47, 13.47, 13.47, 13.47, 13.89, 13.89, 13.89, 13.89, 13.89, 13.57, 13.15, 13.15, 12.72, 12.89, 12.39, 12.63, 12.2, 11.54, 11.76, 11.76, 11.33, 11.33, 11.33, 11.33, 10.89, 10.89, 11.02, 11.14, 10.69, 10.69, 10.69, 10.69, 10.24, 10.24, 10.24, 9.79, 9.79, 9.79, 9.83, 9.39, 9.39, 9.39, 8.94, 8.94, 8.94, 8.94, 8.49, 8.49, 8.49, 8.94, 8.94, 8.94, 9.39, 9.39, 9.39, 9.83, 9.83, 9.83, 11.62, 10.28, 10.28, 10.28, 9.75, 10.28, 10.73, 11.18, 11.62, 12.96, 15.2, 19.2, 20.67, 19.9, 19.41, 18.91, 17.98, 16.61, 15.19, -0.0, 3.33, 10.59, 12.52, 12.52, 12.52, 11.96, 11.96, 12.46, 12.46, 12.21, 12.21, 12.21, 12.21, 12.21, 12.63, 12.63, 13.05, 13.47, 13.47, 13.47, 13.47, 13.47, 13.47, 13.47, 13.89, 13.89, 13.89, 13.89, 13.89, 13.57, 13.15, 13.15, 12.72, 12.89, 12.39, 12.63, 12.2, 11.54, 11.76, 11.76, 11.33, 11.33, 11.33, 11.33, 10.89, 10.89, 11.02, 11.14, 10.69, 10.69, 10.69, 10.69, 10.24, 10.24, 10.24, 9.79, 9.79, 9.79, 9.83, 9.39, 9.39, 9.39, 8.94, 8.94, 8.94, 8.94, 8.49, 8.49, 8.49, 8.94, 8.94, 8.94, 9.39, 9.39, 9.39, 9.83, 9.83, 9.83, 11.62, 10.28, 10.28, 9.75, 9.75, 10.28, 10.73, 11.18, 11.12, 12.03, 14.27, 16.87, 19.25, 19.77, 18.91, 18.91, 18.06, 16.6, 15.59, 14.3, 9.92, 11.7, 13.42, 13.42, 13.42]}, {"header": {"dx": 0.06612293990616946, "dy": 0.0552356325346848, "nx": 98, "ny": 59, "la1": 35.046912555036876, "la2": 31.78801023549047, "lo1": -121.43107172385933, "lo2": -114.95102361305473, "refTime": "2026041208", "parameterCategory": 1, "parameterNumber": 3}, "data": [-3.8, -4.05, -3.32, -2.43, -1.34, -1.47, 0.0, 0.0, 0.0, 0.0, 1.53, 1.44, 2.06, 4.15, 6.17, 6.44, 7.59, 7.59, 5.95, 7.59, 7.9, 8.22, 6.7, 6.44, 5.52, 6.2, 6.87, 7.59, 9.3, 10.0, 10.6, 10.96, 10.73, 2.69, 2.83, -0.0, 0.0, 0.0, 5.37, 8.05, 8.49, 9.64, 10.4, 9.17, 8.58, 6.16, 7.08, 7.63, 8.9, 8.28, 7.43, 7.96, 7.96, 8.1, 7.95, 8.23, 7.69, 7.2, 7.2, 6.42, 6.42, 7.11, 9.17, 12.04, 11.12, 10.3, 9.8, 8.51, 7.92, 7.88, 7.42, 6.1, 4.24, 1.71, 1.55, 1.25, 2.06, 1.77, 0.0, -8.85, -6.17, -8.58, -8.58, -9.2, -10.08, -10.28, -10.73, -10.6, -6.97, -5.99, -6.21, -7.18, -7.18, -7.43, -9.17, 0.0, 12.58, 13.41, -3.69, -4.05, -3.32, -2.43, -2.64, -1.63, -1.68, 0.0, 0.0, 0.0, 0.0, 2.13, 2.28, 2.1, 3.68, 6.2, 7.27, 9.67, 8.93, 8.23, 10.04, 9.66, 9.66, 8.22, 6.44, 6.44, 7.27, 7.27, 9.96, 10.84, 11.4, 12.01, 11.4, 1.84, -0.0, -0.0, -0.0, 0.0, 8.49, 8.94, 9.83, 11.62, 11.6, 8.94, 7.4, 5.65, 7.3, 6.97, 7.6, 7.44, 7.19, 7.19, 7.19, 7.43, 8.23, 8.31, 7.44, 6.42, 6.42, 6.0, 5.55, 7.19, 12.04, 11.6, 11.26, 9.84, 9.48, 9.21, 9.49, 8.93, 7.84, 7.71, 5.02, 1.83, 0.0, 1.61, 2.24, 1.77, 0.0, -8.85, -6.17, -8.58, -8.58, -9.2, -10.08, -10.28, -10.73, -10.6, -6.97, -5.99, -6.21, -7.18, -7.18, -7.43, -9.17, 0.0, 12.58, 13.41, -3.69, -4.05, -3.32, -3.58, -2.64, -1.63, -1.68, 0.0, 0.0, 0.0, 0.0, 0.0, 1.91, 4.32, 4.8, 5.95, 7.9, 7.9, 8.94, 10.41, 10.38, 9.67, 8.22, 8.53, 8.85, 6.42, 6.95, 9.33, 9.83, 10.73, 12.07, 12.52, 12.07, 8.94, 6.71, 8.49, 5.69, 0.0, 9.39, 10.28, 11.62, 13.15, 11.38, 7.04, 4.77, 4.36, 4.36, 5.8, 5.45, 5.8, 6.87, 7.11, 6.87, 6.87, 7.51, 7.11, 6.51, 5.55, 5.16, 5.16, 5.45, 10.37, 12.3, 12.14, 11.33, 10.23, 10.12, 10.3, 10.75, 10.3, 10.08, 9.42, 7.49, 4.71, 0.0, 0.0, 0.0, 2.02, 0.0, -9.48, -5.2, -8.22, -9.58, -8.82, -9.75, -10.28, -10.28, -10.6, -8.53, -6.7, -8.15, -9.06, -8.97, -8.23, -3.14, 11.6, 12.71, 13.23, -4.52, -3.93, -4.34, -3.58, -2.64, -1.47, -1.68, -1.89, 0.0, 0.0, 0.0, 0.0, 1.98, 4.15, 5.0, 7.9, 8.22, 10.04, 10.8, 10.0, 10.0, 7.59, 7.9, 8.22, 7.59, 7.9, 7.27, 8.18, 9.39, 9.2, 10.46, 11.44, 11.58, 10.65, 8.4, 7.51, 6.95, 3.53, 8.22, 13.41, 15.87, 15.02, 9.89, 5.8, 0.0, 0.0, 2.15, 1.71, 3.44, 5.11, 5.6, 6.43, 6.43, 6.63, 6.63, 6.3, 5.8, 4.58, 4.24, 3.53, 6.67, 12.71, 12.14, 11.85, 11.8, 11.6, 10.79, 10.91, 11.2, 11.44, 11.56, 11.35, 10.36, 7.5, 3.47, 0.0, -2.62, -0.96, 0.0, -9.48, -5.98, -8.53, -9.3, -8.73, -8.73, -10.4, -11.62, -10.8, -9.62, -8.66, -9.39, -9.34, -9.48, -5.8, 12.3, 12.58, 12.72, 13.23, -4.52, -3.93, -4.34, -3.58, -2.64, -2.89, -1.68, -1.68, -1.63, 0.0, 0.0, 0.0, 2.28, 5.0, 4.8, 8.22, 9.67, 10.04, 11.71, 11.71, 11.87, 10.0, 9.6, 8.22, 7.59, 7.9, 8.73, 8.94, 11.18, 9.13, 8.03, 7.9, 9.67, 11.62, 8.94, 6.98, 6.98, 4.1, 4.95, 18.33, 19.22, 14.95, 9.49, 6.9, 4.81, 2.37, 2.37, 2.45, 4.65, 4.81, 6.67, 7.19, 6.21, 6.21, 6.08, 5.8, 4.43, 3.53, 3.25, 2.91, 10.79, 12.96, 13.01, 12.87, 12.93, 12.74, 11.64, 11.42, 10.91, 11.87, 12.01, 12.59, 11.95, 11.6, 6.57, 2.94, -3.04, -4.39, 0.0, -9.8, -7.26, -9.66, -9.3, -7.26, -8.22, -10.35, -12.52, -11.26, -10.02, -10.52, -9.12, -8.51, -9.17, 11.6, 12.96, 12.58, 12.45, 12.72, -4.52, -4.81, -4.21, -3.58, -2.64, -2.89, -1.68, -1.63, 0.0, 0.0, 0.0, 0.0, 2.19, 2.6, 3.53, 7.9, 9.67, 11.45, 11.71, 12.52, 12.52, 11.71, 12.72, 10.79, 10.04, 9.66, 9.97, 9.3, 10.0, 10.96, 8.91, 6.64, 5.9, 8.53, 7.44, 4.24, 5.11, 3.98, 7.8, 17.81, 15.87, 13.57, 10.19, 9.5, 8.85, 8.85, 8.01, 6.44, 3.04, 5.6, 6.21, 5.6, 6.21, 4.39, 4.1, 3.41, 2.32, 1.17, 1.21, 4.24, 12.96, 12.52, 13.09, 13.88, 14.53, 14.38, 12.81, 11.03, 10.73, 10.22, 9.89, 10.05, 10.84, 9.95, 9.2, 5.81, 2.54, -3.04, 0.0, -6.7, -7.54, -9.42, -9.42, -8.22, -9.46, -11.78, -12.31, -12.07, -12.52, -11.25, -10.12, -4.24, 9.48, 8.85, 11.2, 11.6, 12.45, 12.72, -4.52, -4.81, -3.93, -3.32, -3.58, -2.89, -1.63, -1.63, 0.0, 0.0, 0.0, 1.22, 2.1, 2.1, 0.0, 5.0, 8.53, 11.2, 12.52, 12.52, 12.58, 14.3, 14.75, 13.99, 10.75, 12.27, 12.65, 11.9, 11.6, 9.6, 10.52, 9.39, 9.54, 9.83, 10.4, 3.36, 5.31, 6.2, 7.13, 13.41, 14.3, 12.71, 11.5, 11.16, 11.33, 9.76, 8.61, 8.24, 6.7, 7.51, 6.44, 4.48, 3.44, 1.55, 0.0, 0.0, 0.0, 0.0, 0.0, 4.1, 12.52, 12.52, 13.77, 14.55, 15.18, 14.79, 12.87, 11.3, 9.5, 7.68, 6.99, 5.99, 5.09, 5.37, 4.12, 4.12, 4.05, 2.45, 12.07, -11.03, -9.42, -10.09, -10.4, -10.0, -10.7, -12.07, -13.94, -13.99, -13.02, -11.35, -11.87, 10.79, 8.05, 5.8, 8.85, 11.6, 11.99, 11.5, -4.38, -4.52, -3.93, -4.21, -3.58, -2.64, -1.63, -1.63, 0.0, 0.0, 0.0, 1.22, 2.02, 0.0, 0.0, 0.0, 0.0, 12.96, 12.96, 9.48, 9.48, 0.0, 0.0, -15.65, 0.0, 0.0, 0.0, 0.0, 14.75, 13.01, 11.84, 12.07, 12.52, 11.87, 6.2, 0.0, 0.0, 1.58, 3.68, 9.67, 12.96, 13.86, 14.39, 13.59, 11.38, 10.12, 9.36, 9.48, 10.47, 10.18, 8.22, 5.4, 0.0, 0.0, -1.38, -2.72, -2.72, -3.44, -3.82, 12.52, 12.96, 12.86, 13.77, 14.03, 14.11, 13.39, 11.38, 8.97, 4.37, 1.34, 1.13, 0.0, 0.0, -1.11, 0.0, 0.0, 2.24, 4.74, 4.39, 0.0, -15.65, -11.3, -10.38, -11.21, -12.03, -13.37, -13.94, -12.95, -11.88, -11.71, 10.04, 11.2, 6.0, -0.0, -0.0, 9.48, 11.99, 10.73, -4.13, -4.52, -3.93, -4.21, -3.58, -2.64, -1.47, -1.63, 0.0, 0.0, 0.0, 0.0, 0.0, 0.0, 0.0, 0.0, 0.0, 0.0, 0.0, -0.0, 0.0, 0.0, -13.86, -14.3, -9.17, -7.9, -6.95, -0.0, 13.99, 14.3, 13.86, 15.2, 15.2, 9.8, 3.96, 0.0, -3.53, -3.53, 0.0, 7.27, 12.96, 14.75, 13.99, 11.2, 9.3, 9.09, 10.87, 11.75, 11.44, 10.65, 9.48, 7.73, 5.4, 0.0, -1.98, -4.58, -6.45, -8.22, -11.62, 13.41, 13.72, 13.19, 12.71, 13.27, 13.07, 11.54, 9.49, 5.5, 0.0, -2.89, -3.88, -3.32, -3.69, -4.34, -4.21, -2.81, 0.0, 0.0, 2.48, 2.88, -4.01, -14.03, -10.32, -11.35, -11.62, -12.07, -12.66, -12.14, -10.84, 11.62, 11.71, 8.85, -0.0, -7.69, -12.39, 0.0, 11.53, 11.16, -4.13, -4.38, -3.93, -3.93, -3.32, -2.43, -1.47, -1.63, 0.0, 0.0, 0.0, 0.0, 0.0, 0.0, 0.0, 3.25, 6.4, 10.43, 0.0, 0.0, -12.96, -12.96, -13.86, -14.3, -14.3, -10.4, -6.64, -0.0, 10.43, 14.3, 0.0, 0.0, 0.0, 0.0, 0.0, 3.53, 0.0, -4.2, 0.0, 9.17, 12.71, 12.58, 11.28, 8.23, 8.03, 9.7, 9.86, 9.08, 9.17, 8.97, 9.59, 11.16, 11.31, 10.99, 8.53, 6.97, 6.45, -11.62, -11.03, 13.41, 14.26, 14.18, 14.23, 13.15, 12.79, 11.44, 9.23, 7.4, 0.0, -8.05, -9.13, -7.2, -6.4, -6.6, -4.89, -4.52, -5.64, -4.52, -2.72, 0.0, 0.0, 0.0, -13.41, -10.73, -10.28, -6.95, -5.7, -3.25, 0.0, 10.0, 12.07, 5.4, -2.54, -8.05, -9.8, 0.0, 12.39, 11.99, -4.13, -4.38, -3.69, -4.05, -3.32, -2.43, -1.34, -1.63, 0.0, 0.0, 0.0, 0.0, 0.0, -1.53, 0.0, 0.0, 4.95, 4.95, 4.95, 0.0, 0.0, 0.0, 0.0, -14.75, -14.75, -12.96, -0.0, -0.0, -0.0, 0.0, -12.96, -12.96, -12.07, -11.18, -11.18, 0.0, 0.0, 0.0, 3.82, 9.8, 13.57, 13.41, 11.28, 10.6, 10.41, 9.2, 8.24, 7.15, 6.5, 8.49, 11.6, 13.39, 13.91, 14.64, 14.36, 14.79, 14.58, 12.25, 12.07, 12.86, 13.86, 14.53, 13.88, 13.89, 13.8, 12.94, 13.23, 13.15, 11.88, 3.14, -8.85, -9.17, -8.78, -8.78, -6.73, -6.88, -6.4, -9.17, -7.51, -2.2, 2.15, 7.2, 5.64, 0.0, 5.2, 6.44, 5.29, 3.98, 4.8, 4.15, 3.53, 3.82, -0.0, -2.54, -3.25, -0.0, 13.41, 12.96, -4.13, -4.13, -3.69, -4.05, -3.32, -3.58, -2.64, -1.47, 0.0, 0.0, 0.0, -1.38, -1.47, -1.58, -1.48, 0.0, 0.0, 0.0, 0.0, 0.0, 0.0, 0.0, 0.0, 0.0, 0.0, 0.0, 0.0, 8.05, 0.0, 0.0, -10.73, 0.0, 0.0, 0.0, -7.59, -3.25, 0.0, 0.0, 0.0, 6.0, 11.53, 13.41, 12.07, 11.18, 10.28, 8.91, 9.2, 9.2, 9.58, 10.75, 11.93, 12.71, 14.21, 16.0, 16.0, 16.34, 15.77, 12.89, 10.12, 12.96, 14.3, 14.5, 13.99, 13.77, 13.99, 15.27, 16.88, 17.2, 17.5, 16.2, 12.82, 9.16, 0.0, -7.19, -10.37, -11.53, -9.8, -13.41, -8.85, 0.0, 4.38, 8.05, 6.21, 5.48, 5.6, 6.43, 5.2, 3.61, 2.95, 3.39, 0.0, 0.0, -0.0, -0.0, -2.45, -0.0, -0.0, 8.85, -4.13, -4.13, -3.69, -4.05, -4.34, -3.32, -2.43, -1.42, 0.0, 0.0, -1.53, -1.42, -1.47, -1.51, -1.73, -1.89, -2.02, -2.2, -2.54, -2.63, 0.0, 0.0, 0.0, 0.0, 0.0, 0.0, 2.2, 4.98, 2.93, 0.0, 0.0, 0.0, 0.0, 0.0, -3.25, 0.0, 0.0, 0.0, 0.0, 2.37, 10.41, 12.52, 12.07, 10.28, 9.83, 9.83, 10.14, 10.18, 10.75, 11.06, 10.68, 11.14, 12.07, 12.52, 14.3, 15.18, 13.99, 11.69, 8.22, 11.57, 13.86, 13.15, 13.15, 13.01, 13.75, 15.43, 18.21, 20.32, 20.89, 22.22, 18.31, 14.42, 11.3, 7.82, 0.0, -13.86, 0.0, 10.12, 6.0, 0.0, 0.0, 0.0, 1.55, 0.0, 5.11, 6.4, 4.11, 2.45, 2.6, 2.6, 1.09, 0.0, -11.18, -0.0, -2.37, -0.0, 3.82, 8.53, -4.13, -4.13, -3.57, -3.93, -4.05, -3.22, -2.35, -1.42, 0.0, -1.58, -1.58, -1.42, -1.47, -1.38, -1.6, -1.78, -2.28, -2.15, -4.66, -4.52, -5.31, -5.31, -2.43, -2.21, 0.0, 0.0, 0.0, 0.0, 0.0, 0.0, 0.0, 0.0, 0.0, 0.0, 0.0, 0.0, 0.0, 2.02, 1.69, 3.98, 10.4, 11.18, 11.18, 11.18, 9.83, 9.83, 8.38, 9.64, 10.58, 10.58, 10.58, 10.73, 13.41, 13.86, 12.96, 12.07, 10.04, 8.31, 8.58, 11.11, 12.93, 13.09, 13.09, 13.79, 13.38, 14.6, 15.98, 17.28, 18.06, 15.83, 17.01, 12.63, 9.44, 6.48, 3.19, 3.58, 11.06, 10.75, 8.18, 5.48, 0.0, -3.96, -1.77, -1.58, 1.55, 2.91, 2.56, 2.72, 2.42, 2.33, 1.76, 0.0, -2.19, -11.62, -3.39, 3.68, 8.22, 8.22, -3.36, -3.36, -3.57, -3.69, -3.93, -3.22, -2.35, -1.42, -1.58, -1.58, -3.1, -2.89, -2.89, -2.72, -3.16, -3.59, -2.05, -4.54, -4.42, -4.3, -4.81, -4.81, -4.95, -5.09, -4.42, -2.05, -2.0, 0.0, 0.0, 0.0, 0.0, 0.0, 0.0, 0.0, 0.0, 0.0, 3.25, 4.2, 2.71, 2.02, 8.58, 11.62, 10.73, 10.73, 9.39, 9.39, 9.39, 9.39, 8.94, 9.64, 10.08, 10.28, 9.83, 8.49, 8.94, 0.0, 0.0, 3.77, 9.3, 12.42, 11.62, 11.51, 11.95, 12.07, 12.07, 12.86, 13.44, 12.33, 11.16, 11.68, 11.7, 11.31, 5.67, 2.72, 0.0, 9.77, 13.65, 11.69, 9.77, 8.05, 6.17, 1.96, 0.0, -1.77, -8.53, -3.81, 0.0, 0.0, 1.09, 1.33, 1.11, 0.97, 0.0, -5.0, -11.18, 9.3, 9.3, 9.3, -3.36, -3.36, -3.57, -3.69, -3.93, -3.22, -2.35, -1.3, -1.58, -3.1, -3.2, -2.89, -2.64, -2.72, -2.8, -3.16, -4.01, -4.67, -4.67, -4.01, -6.34, -7.2, -7.2, -5.23, -4.54, -4.01, -1.83, -1.78, 0.0, 0.0, -1.89, -2.15, -1.96, 0.0, 0.0, 0.0, 2.39, 4.4, 2.71, 0.0, 7.27, 10.52, 10.73, 9.83, 9.39, 9.39, 9.39, 8.94, 8.94, 8.49, 8.67, 8.67, 8.48, 8.48, 6.01, 3.8, 4.71, 7.87, 10.68, 11.51, 10.2, 10.52, 10.73, 10.73, 10.28, 10.96, 9.97, 11.12, 10.82, 10.12, 7.58, 2.79, 0.0, -1.83, 0.0, 14.38, 13.51, 11.2, 9.73, 9.39, 9.66, 8.11, 6.1, 2.81, -2.82, -10.6, -8.3, -4.71, -1.48, 0.0, 0.0, 0.0, 0.0, -2.19, 10.73, 9.96, 9.58, 9.58, -3.36, -3.36, -3.47, -3.57, -3.81, -3.0, -2.18, -1.34, -2.81, -3.1, -4.66, -4.24, -4.37, -4.0, -4.12, -4.95, -3.79, -4.54, -4.67, -5.96, -5.81, -6.34, -7.2, -7.2, -4.42, -3.9, -3.49, -1.78, -1.78, -1.83, -1.88, -2.11, -4.42, -3.47, -2.17, 0.0, 2.28, 3.39, 0.0, 3.25, 7.59, 8.67, 9.33, 8.06, 9.39, 9.39, 9.39, 9.39, 8.94, 8.94, 8.0, 8.4, 6.64, 6.64, 6.64, 7.81, 8.8, 9.2, 10.0, 9.3, 10.0, 9.75, 9.83, 9.83, 9.83, 8.94, 10.28, 11.2, 9.17, 7.19, 1.72, -3.52, -5.94, -6.69, 13.95, 15.96, 14.36, 11.38, 9.66, 8.99, 8.43, 8.05, 6.6, 5.15, 2.54, -8.22, -11.03, -6.67, -3.68, -1.66, 0.0, 0.0, 0.0, -1.64, 0.0, 10.41, 10.38, 10.38, -3.36, -3.36, -3.47, -3.69, -3.57, -2.9, -2.18, -2.35, -2.89, -4.66, -5.99, -6.17, -5.64, -6.29, -5.64, -4.81, -3.79, -4.42, -4.54, -4.01, -5.09, -5.09, -6.16, -6.8, -4.3, -3.9, -3.59, -3.59, -1.83, -1.93, -1.93, -1.97, -4.34, -3.9, -1.77, -1.67, 0.0, 0.0, 0.0, 4.6, 6.95, 8.4, 7.6, 8.0, 8.0, 8.4, 8.4, 8.4, 8.4, 8.4, 6.64, 6.95, 4.4, 4.4, 6.95, 6.95, 6.95, 7.27, 5.95, 6.2, 9.3, 10.18, 10.28, 9.83, 9.39, 9.21, 10.28, 11.28, 6.44, 3.07, 0.0, -1.06, -4.21, 0.0, 12.71, 14.57, 12.33, 9.48, 9.12, 6.35, 5.62, 4.76, 3.36, 1.61, 0.0, -12.96, -12.3, -10.79, -9.48, -5.15, 0.0, 0.0, 0.0, 0.0, 0.0, 11.18, 10.6, 10.6, -3.36, -3.36, -3.36, -3.47, -3.57, -2.72, -3.0, -2.18, -2.43, -2.89, -4.66, -7.38, -7.0, -7.0, -6.8, -6.69, -4.05, -4.3, -4.3, -3.69, -4.95, -6.54, -7.0, -5.23, -5.64, -4.01, -4.38, -5.37, -2.87, -3.9, -2.16, -2.22, -4.34, -3.78, -3.79, -3.44, -3.87, -2.28, 0.0, 3.53, 4.6, 5.7, 4.6, 4.4, 6.95, 6.95, 8.8, 8.4, 6.64, 6.64, 6.95, 6.95, 6.95, 6.95, 6.95, 7.27, 6.95, 5.95, 7.9, 7.9, 8.93, 7.59, 9.2, 8.48, 9.21, 9.75, 10.28, 9.96, 4.4, 1.71, 1.38, 3.69, 4.38, 4.81, 5.39, 4.35, 1.34, 1.03, 1.93, 1.87, 0.79, 0.0, -0.81, -1.55, -1.17, -7.19, -12.52, 10.4, -5.8, -4.1, 0.0, 0.0, 0.0, 0.0, 0.0, 10.4, 11.62, 11.62, -3.36, -3.36, -2.55, -2.55, -2.55, -2.55, -2.81, -3.0, -2.24, -2.43, -3.88, -5.64, -7.0, -8.05, -8.68, -6.17, -5.81, -4.66, -3.07, -5.64, -5.37, -7.2, -7.2, -7.8, -6.14, -3.24, -4.01, -5.09, -4.67, -2.4, -2.47, -2.16, -4.23, -4.23, -4.12, -3.69, -4.55, -4.08, -1.28, 0.0, 1.26, 1.54, 1.84, 1.84, 2.17, 4.8, 6.95, 6.95, 4.2, 6.64, 6.64, 6.64, 6.64, 8.18, 6.32, 7.81, 7.59, 6.95, 5.7, 5.95, 7.27, 9.2, 8.8, 9.83, 9.26, 9.7, 10.28, 8.58, 4.6, 3.68, 3.02, 4.31, 6.0, 3.14, -2.19, -7.6, -9.16, -8.28, -4.19, -1.59, -0.76, -0.78, -1.54, -2.81, -2.37, -2.28, 3.39, 8.58, 6.97, 5.2, 0.0, 0.0, 0.0, -1.64, 2.37, 9.66, 11.4, 11.4, -3.36, -3.36, -2.55, -2.55, -2.55, -2.55, -2.55, -2.81, -2.09, -2.31, -2.43, -4.0, -5.35, -7.0, -8.05, -7.6, -5.18, -4.05, -5.11, -4.81, -5.37, -6.52, -7.4, -7.2, -5.96, -4.67, -2.28, -2.4, -2.47, -2.53, -2.53, -2.47, -2.47, -2.16, -4.12, -4.01, -5.18, -3.14, 0.0, 0.0, 1.16, 0.0, 0.0, 1.93, 2.28, 0.0, 6.95, 6.95, 4.2, 4.2, 4.0, 6.64, 6.64, 8.18, 8.55, 8.18, 7.27, 6.17, 4.8, 3.11, 6.95, 8.8, 9.83, 9.83, 9.21, 9.97, 12.07, 10.4, 7.9, 6.76, 6.21, 6.43, 8.81, 5.89, -3.46, -11.52, -13.41, -12.84, -10.47, -7.36, -4.19, -1.56, 0.0, 0.0, 0.0, 0.0, 5.4, 5.75, 2.52, 3.92, 0.0, -3.56, -2.72, 0.0, 4.48, 7.24, 10.4, 10.4, -3.57, -3.36, -3.36, -2.55, -2.55, -1.72, -1.72, -1.77, -1.95, -2.15, -2.31, -2.5, -3.69, -5.35, -7.0, -7.0, -6.8, -5.18, -5.81, -5.81, -5.37, -5.81, -5.65, -5.65, -5.96, -4.34, -4.79, -2.34, -2.05, -2.11, -2.16, -2.16, -2.16, -2.16, -4.12, -4.12, -3.79, -1.72, 0.0, 0.0, 0.0, 0.0, 0.0, 1.84, 0.0, 0.0, 0.0, 0.0, 0.0, 4.0, 4.0, 6.64, 6.32, 6.64, 6.95, 8.55, 7.59, 7.59, 4.8, 0.0, 8.94, 10.28, 9.83, 9.39, 9.33, 12.07, 12.52, 11.28, 11.03, 11.87, 11.64, 11.03, 14.37, 10.93, -12.07, -13.57, -15.99, -16.02, -14.64, -11.88, -8.22, -4.07, -1.83, 0.0, 1.08, 1.42, 2.28, 0.0, -1.29, 0.0, -2.61, -4.48, -1.77, 1.98, 5.98, 5.98, 6.97, 6.97, -4.38, -4.38, -3.57, -3.36, -2.55, -2.55, -1.77, -1.77, -1.83, -2.01, -2.15, -2.31, -2.38, -3.79, -4.95, -6.47, -6.17, -5.18, -5.34, -5.81, -5.37, -5.09, -4.37, -4.81, -5.81, -6.12, -7.04, -4.79, -4.12, -3.9, -4.01, -2.05, -2.05, -4.01, -4.01, -1.83, -1.78, 0.0, 0.0, 0.0, 0.0, 0.0, 0.0, 0.0, 0.0, 0.0, 0.0, 0.0, 0.0, 0.0, 4.0, 6.32, 6.32, 6.32, 6.64, 8.18, 7.27, 7.15, 6.2, 0.0, 6.64, 10.28, 10.28, 9.83, 9.83, 12.52, 12.96, 11.18, 11.18, 11.18, 12.35, 10.91, 9.17, 7.6, -6.2, -9.64, -13.94, -15.36, -15.77, -15.41, -11.95, -8.18, -5.62, -2.28, -1.15, 0.0, 0.0, -1.83, -4.11, -2.4, -3.04, 0.0, 2.93, 4.48, 5.2, 3.19, 1.91, 1.91, -4.38, -4.38, -4.38, -3.57, -3.36, -2.55, -2.55, -2.64, -1.83, -1.89, -2.01, -2.21, -2.21, -2.38, -3.52, -4.95, -5.35, -5.99, -5.49, -5.65, -5.81, -6.9, -5.98, -5.48, -5.64, -5.23, -6.12, -6.87, -6.12, -5.96, -3.49, -3.49, -3.49, -3.49, -3.49, -1.78, -1.78, 0.0, 0.0, 0.0, 0.0, 0.0, 0.0, 0.0, 0.0, 0.0, 4.4, 4.2, 4.0, 4.0, 4.0, 3.8, 6.01, 6.32, 6.32, 7.81, 6.79, 6.64, 7.9, 7.59, 8.49, 8.94, 9.39, 9.11, 9.83, 13.15, 12.3, 12.3, 10.18, 6.95, 10.28, 0.0, 3.35, 6.51, 7.95, -12.01, -15.2, -13.44, -13.7, -14.65, -14.74, -10.99, -7.69, -5.99, -4.52, -3.76, -2.48, -2.72, -1.96, 6.4, 1.83, 6.21, 6.21, 3.82, 1.91, 0.0, 0.0, 0.0, -4.38, -4.38, -4.38, -3.57, -3.57, -3.57, -2.55, -2.64, -2.72, -1.89, -1.89, -2.01, -3.28, -2.21, -2.38, -3.52, -4.95, -5.64, -4.81, -5.65, -5.65, -6.9, -6.31, -5.65, -5.35, -5.81, -6.9, -6.12, -6.12, -5.96, -5.37, -3.59, -3.39, -3.39, -3.16, -1.6, -1.6, -1.73, 0.0, 0.0, 0.0, 0.0, -1.09, 0.0, 0.0, 1.54, 3.35, 3.35, 4.96, 4.66, 4.44, 5.7, 4.71, 6.32, 6.32, 6.32, 6.32, 6.08, 7.15, 7.87, 6.95, 7.6, 8.94, 9.11, 10.6, 11.53, 11.87, 11.87, 11.18, -7.27, -3.53, -1.08, 2.85, 8.06, 8.91, 6.5, 3.16, -13.59, -14.31, -11.45, -14.08, -13.59, -11.76, -8.94, -6.0, -4.55, -3.14, 0.0, 2.63, 10.12, 9.89, 8.23, 4.65, 1.55, 0.0, 0.0, 0.0, 0.0, -4.38, -4.38, -4.38, -4.38, -3.57, -3.57, -3.57, -2.81, -2.89, -2.72, -2.8, -2.8, -3.07, -3.28, -2.21, -2.21, -3.52, -4.95, -5.81, -4.95, -5.49, -6.54, -6.31, -5.81, -5.23, -5.5, -5.5, -6.9, -5.51, -6.12, -5.96, -5.37, -3.59, -3.24, -3.16, -1.6, -1.6, -1.6, 0.0, 0.0, 0.0, -0.93, -0.98, 0.0, 1.28, 3.61, 4.4, 4.74, 4.74, 4.2, 4.98, 4.66, 4.4, 5.46, 6.32, 6.32, 6.01, 5.69, 7.44, 7.15, 6.95, 5.7, 7.44, 8.91, 8.55, 10.41, 11.21, 12.14, 2.6, -2.49, -3.39, -1.83, 1.13, 6.64, 10.82, 11.09, 9.09, 2.19, -13.97, -12.31, -13.07, -14.31, -13.13, -11.29, -7.54, -3.81, -1.66, 0.0, 2.2, 7.13, 6.8, 6.6, 3.68, 2.13, 0.0, 0.0, 0.0, 0.0, -4.38, -4.38, -4.38, -4.38, -3.57, -3.57, -3.57, -3.57, -3.69, -2.89, -2.8, -2.8, -2.88, -2.98, -3.28, -2.21, -3.28, -4.6, -5.35, -4.5, -4.95, -4.95, -6.54, -5.65, -5.23, -5.23, -5.09, -5.65, -6.31, -5.37, -5.37, -5.37, -5.37, -5.37, -3.59, -3.24, -3.24, -1.65, -1.65, -1.56, -1.25, -1.0, -0.89, 0.0, 2.23, 4.6, 5.45, 4.98, 4.74, 4.0, 4.2, 4.88, 4.88, 5.46, 4.4, 6.01, 6.01, 7.2, 6.8, 6.01, 5.63, 6.01, 7.59, 4.96, 7.59, 8.55, 9.3, 2.6, 0.0, 0.0, -1.84, -1.44, 0.0, 3.92, 8.24, 11.87, 8.56, 6.81, -2.0, -11.62, -12.45, -14.31, -13.57, -11.85, -10.87, -8.73, -5.81, -3.93, 0.0, 0.0, 0.0, 0.0, 3.09, 2.11, 2.13, 2.52, 4.4, 4.4, -4.66, -4.66, -4.38, -4.38, -4.38, -3.57, -3.57, -3.57, -3.69, -3.69, -2.89, -2.8, -2.8, -2.98, -2.98, -3.18, -3.28, -3.52, -4.95, -5.81, -4.95, -4.95, -6.35, -5.81, -5.5, -5.09, -5.09, -5.09, -5.23, -5.65, -6.14, -5.23, -5.37, -5.37, -5.37, -3.59, -3.24, -1.69, -1.69, -1.6, -1.34, -1.08, -0.93, 0.0, 1.02, 3.99, 4.99, 5.21, 4.98, 4.2, 4.66, 4.88, 5.1, 5.1, 5.95, 5.46, 4.96, 3.8, 5.69, 4.96, 4.6, 4.96, 5.46, 5.63, 5.21, 7.9, 5.75, 2.49, 3.11, 3.82, 1.58, 0.0, 0.0, 0.0, 2.65, 3.01, 2.12, 3.92, 5.78, -12.96, -10.58, -13.75, -14.31, -12.72, -11.03, -10.41, -8.83, -6.4, -2.35, -2.35, -2.28, -2.09, 0.0, 1.02, 3.12, 4.43, 6.44, 6.44, -4.66, -4.66, -4.66, -4.38, -4.38, -3.57, -3.57, -3.69, -3.69, -3.69, -3.8, -2.98, -2.88, -2.88, -3.07, -3.18, -3.18, -3.18, -4.47, -5.19, -5.81, -4.95, -4.95, -5.81, -5.35, -4.95, -4.6, -3.62, -4.01, -4.01, -4.35, -4.35, -4.75, -3.24, -3.24, -3.24, -1.65, -1.69, -1.69, -1.65, -1.42, -1.11, -0.97, 0.0, 1.54, 3.11, 4.36, 6.16, 6.16, 4.2, 3.45, 4.88, 4.88, 5.1, 6.24, 5.32, 4.8, 5.7, 5.21, 5.21, 3.32, 2.83, 4.83, 5.21, 4.6, 5.4, 5.77, 6.17, 3.11, 3.82, 5.0, 4.65, 1.38, -4.55, -5.92, -4.93, -2.93, 0.0, 3.99, 2.3, -11.06, -13.23, -13.59, -12.79, -12.3, -11.6, -10.37, -8.31, -7.36, -5.31, -2.81, 0.0, 4.05, 2.72, 5.04, 6.64, 6.96, 6.96, -4.66, -4.66, -4.66, -4.66, -4.38, -3.57, -3.57, -3.69, -3.69, -3.69, -3.69, -3.92, -2.98, -2.88, -2.97, -3.07, -3.18, -3.18, -4.47, -4.81, -5.35, -4.5, -4.5, -4.95, -5.81, -5.35, -4.81, -3.52, -3.62, -3.62, -3.9, -3.9, -2.88, -2.88, -1.65, -1.5, 0.0, 0.0, -1.54, -1.69, -1.46, -1.3, -1.04, 0.0, 0.0, 2.39, 4.48, 7.79, 7.11, 6.08, 4.54, 3.81, 4.4, 5.21, 5.45, 4.8, 4.8, 3.77, 3.98, 3.65, 1.75, 3.32, 4.71, 4.2, 2.97, 4.8, 7.9, 8.53, 2.97, 3.11, 5.54, 6.48, 6.2, 1.37, -8.05, -10.9, -7.8, -4.8, -0.94, 2.5, 0.0, -6.4, -9.42, -8.2, -8.31, -8.58, -9.8, -7.69, -6.2, -3.47, 0.0, 4.52, 5.99, 5.49, 7.38, 7.59, 7.44, 7.44, -4.51, -4.51, -4.66, -4.66, -4.66, -3.57, -3.57, -3.69, -3.69, -3.8, -3.8, -3.69, -3.92, -2.8, -2.88, -3.07, -3.28, -3.28, -4.3, -4.6, -4.95, -5.35, -4.5, -4.5, -4.5, -5.81, -5.19, -4.66, -3.42, -3.52, -3.62, -2.38, -2.57, -1.3, 0.0, 0.0, 0.0, 0.0, 0.0, -1.54, -1.5, -1.38, -1.08, -0.89, 0.0, 1.28, 5.11, 7.93, 7.93, 6.51, 4.32, 3.49, 3.81, 4.56, 4.78, 4.18, 4.36, 3.53, 3.77, 3.39, 2.97, 3.49, 4.0, 2.17, 1.47, 5.63, 8.8, 8.43, 6.42, 4.6, 6.95, 5.95, 6.1, 6.94, 2.22, -8.69, -12.96, -9.12, -6.4, -3.68, 0.0, -0.81, -2.18, -2.72, -2.32, -1.68, -1.83, -1.51, 0.0, 0.0, 3.25, 4.98, 5.73, 5.67, 6.29, 7.28, 6.4, 6.4, -4.81, -4.81, -4.51, -4.66, -4.66, -3.81, -3.81, -3.69, -3.69, -3.8, -3.8, -3.8, -3.8, -4.03, -2.88, -2.88, -3.07, -3.37, -4.42, -4.42, -5.78, -6.19, -5.35, -4.5, -4.5, -5.81, -5.19, -4.52, -5.09, -3.58, -2.38, -2.45, -1.34, 0.0, 0.0, 0.0, 0.0, 0.0, 0.0, 0.0, -1.5, -1.42, -1.15, -0.93, -0.85, 0.0, 3.41, 7.59, 7.13, 5.6, 3.82, 3.32, 3.32, 4.0, 3.49, 3.99, 4.18, 3.39, 3.39, 3.53, 3.39, 3.49, 0.0, 1.67, 3.32, 6.01, 7.47, 8.4, 6.42, 6.7, 5.06, 4.05, 4.39, 5.09, 7.49, 3.25, -11.7, -12.22, -9.69, -6.8, -4.16, -0.78, 0.0, -0.67, -0.69, -0.66, 0.0, 0.0, 0.0, 1.83, 4.1, 4.99, 5.16, 5.99, 6.6, 6.6, 6.4, 6.4, -4.81, -4.81, -4.81, -4.66, -4.66, -3.81, -3.81, -3.93, -3.93, -3.8, -3.8, -3.8, -3.8, -3.8, -3.79, -2.88, -3.07, -3.07, -4.3, -4.42, -5.78, -6.19, -6.66, -4.5, -4.37, -4.37, -5.64, -4.52, -4.38, -3.39, -2.43, -2.57, -1.34, 0.0, 0.0, 0.0, 0.0, 0.0, 0.0, 0.0, -1.37, -1.46, -1.19, -1.0, -0.89, 0.0, 3.41, 6.2, 7.13, 5.2, 3.49, 3.06, 4.0, 4.0, 3.49, 3.65, 3.65, 3.25, 3.39, 3.53, 3.39, 3.15, 4.2, 3.6, 6.01, 5.69, 6.7, 7.6, 6.95, 4.8, 4.6, 1.33, 0.0, 0.0, 3.6, 7.49, 2.33, -11.99, -12.66, -9.34, -5.5, -2.45, -0.85, -0.97, -1.54, -1.48, -0.69, 0.0, 0.79, 1.83, 3.96, 4.64, 4.65, 4.97, 4.81, 5.67, 5.99, 5.99, -4.81, -4.81, -4.81, -4.81, -4.66, -3.81, -3.81, -3.93, -3.93, -4.05, -3.8, -3.92, -3.8, -3.8, -3.92, -2.88, -2.88, -3.07, -4.03, -4.42, -5.41, -5.94, -6.19, -5.5, -4.37, -4.37, -5.64, -5.04, -4.34, -3.32, -3.32, -2.5, -1.3, -1.3, 0.0, 0.0, 0.0, 0.0, 0.0, 0.0, -1.37, -1.37, -2.5, -2.13, -0.97, 0.0, 3.29, 5.73, 5.73, 4.99, 3.36, 3.21, 4.2, 3.88, 3.36, 3.36, 3.82, 4.6, 4.18, 4.36, 5.98, 5.9, 5.36, 5.63, 6.63, 6.63, 6.99, 6.18, 6.64, 4.6, 4.4, 3.19, 0.0, 0.0, 0.0, 6.23, 8.81, 0.0, -15.87, -12.82, -8.7, -5.21, -3.79, -2.11, -1.21, -1.83, -1.62, -0.67, 0.0, 0.96, 3.82, 5.6, 3.29, 2.92, 3.12, 4.96, 4.81, 4.81, -4.81, -4.81, -4.81, -4.81, -4.97, -3.81, -3.81, -3.93, -4.05, -4.05, -3.92, -3.92, -3.92, -3.8, -2.89, -2.8, -2.8, -2.8, -3.92, -4.03, -4.42, -5.41, -5.78, -6.19, -5.35, -4.37, -5.64, -5.04, -4.66, -4.47, -3.42, -2.31, -2.31, -1.26, -1.3, 0.0, 0.0, 0.0, 0.0, 0.0, 0.0, -1.23, -1.26, -1.11, 0.0, 0.97, 3.04, 5.16, 5.55, 4.43, 3.67, 3.51, 4.07, 4.07, 4.07, 4.07, 4.6, 4.6, 5.29, 5.98, 6.45, 5.98, 5.63, 6.64, 7.51, 7.15, 6.28, 5.31, 4.44, 3.81, 4.07, 5.2, 4.55, 3.25, 1.2, 4.61, 8.8, 8.8, 3.42, -4.23, -8.65, -9.16, -5.94, -1.5, 0.0, 0.0, -0.85, 0.0, 0.0, 2.13, 4.65, 6.21, 3.96, 1.38, 1.33, 1.25, 4.21, 4.21, -4.81, -4.81, -4.81, -4.81, -4.08, -4.08, -3.93, -3.93, -4.05, -4.05, -3.92, -3.92, -2.98, -2.89, -2.89, -2.98, -2.8, -2.8, -3.69, -4.03, -4.03, -5.41, -5.78, -6.19, -5.35, -4.37, -4.37, -5.48, -5.04, -4.47, -3.42, -3.42, -2.24, -2.24, -1.23, -1.26, 0.0, 0.0, 0.0, 0.0, 0.0, 0.0, 0.0, 0.0, 0.0, 0.89, 2.93, 4.1, 4.24, 4.43, 3.06, 3.51, 4.07, 4.07, 4.07, 4.07, 4.25, 5.29, 5.29, 5.98, 6.21, 6.2, 5.06, 5.69, 6.63, 6.64, 4.83, 3.15, 2.83, 4.44, 5.95, 7.27, 8.23, 6.2, 3.32, 3.07, 6.26, 7.99, 6.9, 4.01, -0.87, -7.0, -8.85, -2.81, 0.0, 0.0, 0.0, 0.0, 0.0, 0.0, 3.14, 4.65, 3.04, 2.54, 0.0, 0.0, 2.48, 2.48, -4.65, -4.65, -4.81, -4.81, -4.08, -4.08, -3.93, -3.93, -4.05, -4.05, -4.18, -2.98, -2.98, -2.98, -2.89, -2.89, -3.69, -3.69, -3.69, -3.79, -4.03, -4.03, -5.41, -6.74, -6.02, -5.19, -4.37, -5.48, -5.04, -4.81, -4.47, -3.42, -3.32, -2.24, -2.43, -1.23, -1.23, -1.26, 0.0, 0.0, 0.0, 0.0, 0.0, 0.0, 0.85, 0.82, 1.77, 3.04, 4.1, 3.41, 3.18, 3.82, 4.25, 4.07, 4.07, 4.07, 4.25, 4.92, 5.52, 5.75, 6.21, 6.7, 5.06, 6.01, 6.01, 5.63, 4.14, 4.37, 4.6, 5.59, 7.64, 8.55, 8.85, 8.64, 7.37, 2.89, 0.0, 0.0, 0.89, 1.57, 3.08, 1.98, 0.0, -12.39, -3.36, 0.0, 0.0, 0.0, 0.0, 0.0, 0.0, 0.0, 0.0, 0.0, 0.0, 0.0, 0.0, 0.0, -3.81, -3.81, -3.94, -3.94, -4.08, -4.08, -3.93, -3.93, -4.05, -4.05, -4.18, -4.18, -2.98, -2.98, -2.98, -2.89, -3.8, -3.69, -3.48, -3.79, -4.03, -4.03, -4.95, -5.41, -6.56, -6.29, -5.48, -5.48, -5.48, -6.1, -4.81, -4.34, -3.32, -2.24, -2.24, -1.23, -1.19, -1.26, -1.26, -1.2, 0.0, 0.0, 0.0, 0.0, 0.75, 0.82, 0.97, 3.04, 4.58, 3.41, 3.29, 3.97, 4.44, 4.07, 4.07, 4.07, 4.25, 4.25, 5.75, 5.75, 6.21, 6.7, 6.7, 5.1, 5.69, 5.36, 5.1, 5.69, 6.01, 7.07, 8.67, 9.89, 9.16, 8.18, 9.63, 8.32, 0.0, -3.62, -4.45, -3.68, 0.0, 2.25, 2.87, -16.09, -13.86, -4.38, 0.0, -9.48, -13.41, -12.96, -11.6, -5.8, -3.96, -3.04, -3.04, -2.45, -1.77, 0.0, -3.56, -3.56, -3.81, -3.94, -4.08, -4.08, -3.93, -3.93, -4.05, -4.05, -4.18, -4.18, -3.92, -3.92, -3.92, -3.8, -3.8, -3.8, -3.48, -3.48, -3.79, -4.03, -4.03, -4.95, -6.16, -5.85, -5.04, -5.48, -5.31, -6.4, -6.1, -5.67, -4.34, -3.32, -2.18, -2.24, -1.1, -1.19, -1.26, -1.26, -1.2, 0.0, 0.0, 0.0, 0.0, 0.93, 2.28, 3.76, 4.89, 4.74, 4.1, 3.82, 4.13, 3.95, 4.07, 4.07, 4.25, 4.8, 5.75, 5.75, 6.21, 6.7, 5.63, 5.63, 6.32, 6.64, 6.63, 6.01, 6.01, 8.22, 8.89, 9.16, 8.93, 8.83, 10.87, 13.74, 12.4, 7.32, 2.11, 0.0, -5.81, -9.92, -12.64, -14.88, -15.2, -9.8, -7.44, -9.48, -12.96, -12.52, -12.52, -11.87, -8.85, -8.85, -6.94, -7.24, -5.4, -1.77, -3.56, -3.56, -3.56, -3.68, -3.68, -3.81, -3.81, -3.93, -3.93, -4.05, -4.05, -4.05, -3.92, -3.92, -3.8, -3.8, -3.8, -3.8, -3.58, -3.48, -3.69, -3.92, -3.92, -4.03, -4.95, -6.56, -5.67, -4.89, -5.31, -6.4, -6.4, -7.06, -5.67, -5.3, -4.21, -3.22, -2.18, -2.11, -1.1, -1.13, -1.13, -1.17, -1.1, -0.89, -0.83, 0.0, 3.69, 5.81, 6.6, 4.89, 4.38, 3.96, 4.13, 3.78, 3.78, 3.36, 3.51, 4.8, 4.8, 4.62, 5.4, 6.7, 7.82, 5.9, 5.63, 5.63, 6.01, 6.64, 7.28, 9.11, 9.33, 8.79, 7.59, 7.44, 8.83, 14.22, 15.68, 15.68, 13.92, 10.69, 8.68, -17.43, -13.91, -13.28, -14.79, -12.3, -12.3, -11.6, -12.96, -12.96, -12.52, -12.27, -11.62, -10.01, -9.77, -8.53, -8.53, -8.53, -3.44, -3.44, -3.56, -3.56, -3.68, -3.68, -3.81, -3.93, -3.93, -3.93, -4.05, -3.8, -3.8, -3.8, -3.8, -3.8, -3.8, -3.8, -3.58, -3.38, -3.48, -3.69, -3.92, -3.92, -4.81, -4.81, -6.18, -5.5, -5.92, -5.15, -6.2, -7.13, -6.85, -6.4, -5.5, -4.08, -4.08, -3.02, -3.12, -2.18, -2.18, -2.02, -1.96, -1.77, -1.71, 0.0, 3.58, 5.19, 5.31, 4.74, 3.25, 3.82, 3.11, 2.97, 3.11, 3.36, 4.8, 4.8, 4.62, 4.62, 5.2, 6.7, 6.45, 6.17, 5.9, 5.63, 5.63, 6.64, 8.06, 9.29, 9.03, 6.98, 6.44, 6.4, 8.01, 9.31, 12.85, 14.86, 16.09, 15.82, 14.35, 12.89, 5.42, -12.34, -9.67, -11.99, -11.2, -12.96, -12.96, -12.96, -12.52, -12.35, -11.87, -11.87, -10.04, -9.42, -9.42, -9.42, -3.44, -3.44, -3.56, -3.56, -3.68, -3.68, -3.81, -3.81, -3.81, -3.93, -3.93, -3.8, -3.8, -3.8, -3.8, -3.8, -3.8, -3.8, -3.8, -3.38, -3.48, -3.69, -3.92, -3.92, -3.92, -4.81, -4.66, -5.99, -5.33, -5.73, -6.0, -6.51, -6.9, -7.13, -6.85, -5.16, -5.16, -3.94, -3.94, -3.94, -2.9, -2.9, -2.81, -1.71, -1.64, 0.0, 2.35, 4.89, 4.98, 3.29, 3.18, 2.71, 2.97, 2.97, 3.11, 3.36, 3.98, 3.67, 3.82, 4.62, 5.2, 6.7, 6.7, 6.21, 6.17, 5.9, 7.51, 7.87, 8.48, 8.48, 7.67, 6.32, 6.64, 6.69, 7.27, 6.94, 6.99, 10.2, 12.72, 15.51, 17.46, 15.81, 14.22, 0.0, -9.0, -3.69, -3.96, -9.17, -12.96, -12.58, -12.27, -12.35, -11.61, -11.62, -11.71, -11.45, -11.45, -11.45, -3.23, -3.23, -3.56, -3.56, -3.68, -3.68, -3.81, -3.81, -3.93, -3.93, -3.93, -3.8, -3.8, -3.8, -3.8, -3.8, -3.8, -3.8, -3.8, -3.58, -3.48, -3.69, -3.69, -3.92, -3.92, -4.81, -4.66, -4.52, -4.66, -4.81, -5.55, -6.0, -6.51, -7.44, -7.44, -6.9, -5.36, -5.16, -4.24, -3.94, -3.94, -3.02, -2.72, -1.64, -1.58, 0.0, 3.25, 4.58, 4.98, 3.18, 2.94, 2.49, 2.17, 2.11, 2.39, 3.51, 3.51, 3.67, 3.82, 5.0, 5.75, 6.45, 6.7, 6.45, 7.24, 5.9, 7.15, 7.67, 8.91, 8.05, 7.81, 7.67, 7.81, 7.27, 6.44, 6.16, 5.55, 6.24, 9.34, 11.93, 15.34, 16.63, 15.47, 13.37, -15.49, -4.77, -11.38, -12.96, -11.6, -11.62, -11.6, -12.07, -11.87, -5.4, -5.4, -0.0, -0.0, -0.0, -3.23, -3.23, -3.34, -3.56, -3.56, -3.68, -3.68, -3.81, -3.93, -3.93, -3.69, -3.69, -3.8, -3.8, -3.8, -3.8, -3.8, -3.8, -3.8, -3.58, -4.16, -3.69, -3.69, -3.92, -3.92, -4.81, -4.66, -4.52, -4.38, -4.66, -4.81, -4.99, -5.36, -6.3, -6.3, -6.3, -5.8, -5.8, -4.58, -4.1, -4.1, -2.92, -1.97, -1.77, -0.86, 0.0, 3.41, 4.43, 4.81, 3.47, 2.94, 1.62, 1.47, 2.11, 2.39, 3.36, 2.71, 3.67, 3.82, 5.0, 5.75, 5.75, 6.7, 6.7, 6.71, 6.17, 6.32, 6.79, 6.64, 7.51, 8.05, 9.04, 7.81, 5.72, 5.69, 5.0, 4.65, 5.33, 7.73, 10.77, 13.9, 14.72, 13.35, 12.73, 8.16, -15.8, -18.78, -9.48, -10.79, -9.17, -8.85, -3.96, -0.0, -0.0, -0.0, 5.4, 5.4, 5.4, -3.23, -3.23, -3.34, -3.34, -3.46, -3.68, -3.68, -3.81, -3.81, -3.93, -3.69, -3.69, -3.8, -3.8, -3.8, -3.8, -3.8, -3.8, -3.8, -4.4, -4.16, -4.53, -4.53, -3.92, -3.92, -3.92, -3.8, -3.69, -4.38, -4.38, -4.24, -4.36, -4.65, -3.96, -4.28, -4.65, -4.65, -4.65, -4.43, -3.41, -3.14, -2.13, -1.97, -1.84, -0.93, 1.0, 3.29, 4.65, 3.6, 3.34, 1.92, 1.62, 1.47, 1.54, 2.59, 2.59, 2.71, 2.82, 4.15, 5.0, 4.8, 5.0, 5.64, 6.7, 6.97, 6.17, 4.96, 4.96, 8.18, 8.82, 9.33, 8.8, 6.95, 4.88, 4.8, 5.0, 5.86, 6.67, 8.38, 9.27, 12.13, 13.33, 13.29, 13.92, 13.89, -23.25, -10.17, -13.41, -0.0, 8.53, 3.96, -0.0, 2.93, -0.0, -0.0, 2.93, 2.93, 2.93, -3.23, -3.23, -3.34, -3.56, -3.56, -3.68, -3.81, -3.81, -3.81, -3.81, -3.69, -3.69, -3.69, -3.8, -3.8, -3.8, -3.8, -3.8, -3.8, -4.27, -4.27, -4.16, -4.53, -3.69, -3.92, -3.92, -3.8, -3.69, -3.57, -3.57, -3.46, -4.24, -4.1, -3.44, -2.81, -2.71, -2.71, -3.04, -3.04, -3.04, -2.06, -1.9, -1.9, -1.84, -0.93, 1.0, 3.29, 4.65, 3.47, 2.0, 0.97, 0.85, 0.78, 1.47, 2.47, 1.62, 2.71, 2.71, 3.98, 4.8, 4.8, 4.8, 5.64, 6.4, 7.56, 6.44, 6.64, 7.81, 8.18, 6.95, 7.27, 6.95, 4.6, 5.1, 5.98, 6.98, 6.97, 8.53, 9.17, 8.97, 9.73, 11.86, 13.51, 14.88, 16.23, 13.89, -8.6, -2.54, 8.85, 9.66, 5.4, -0.0, -0.0, -0.0, -0.0, 3.04, 3.04, 3.04, -3.44, -3.44, -3.56, -3.56, -3.56, -3.68, -3.81, -3.81, -3.81, -3.69, -3.69, -3.69, -3.8, -3.8, -3.8, -3.8, -3.8, -3.8, -4.66, -4.66, -4.4, -4.16, -4.53, -4.53, -3.92, -3.8, -3.8, -3.69, -3.57, -3.46, -3.46, -3.46, -3.34, -2.45, -2.45, -1.6, -1.71, -1.71, -1.71, -1.9, -0.96, -0.96, -0.96, -1.84, 0.0, 1.13, 3.41, 3.6, 2.28, 0.97, 0.93, 0.82, 0.82, 0.78, 1.54, 1.62, 1.76, 3.51, 3.82, 3.98, 3.98, 3.98, 5.43, 6.4, 6.76, 6.7, 6.14, 6.64, 6.95, 6.64, 3.11, 3.11, 5.29, 6.7, 8.24, 9.1, 8.94, 8.75, 9.36, 8.67, 8.78, 10.08, 13.64, 13.6, 14.14, 16.36, -0.0, 2.13, 6.9, 9.17, 6.7, -0.0, -0.0, -0.0, -0.0, -0.0, -0.0, -0.0, -3.44, -3.44, -3.56, -3.56, -3.56, -3.68, -3.81, -3.81, -3.81, -3.69, -3.69, -3.69, -3.8, -3.8, -3.8, -3.8, -3.8, -4.66, -4.66, -4.66, -4.4, -4.16, -4.29, -4.53, -3.8, -3.8, -4.05, -3.69, -3.57, -3.57, -3.46, -3.46, -2.54, -2.45, -1.65, -0.8, -0.8, -0.86, -1.71, -0.86, -0.93, -0.93, -0.86, -0.93, 0.0, 2.24, 3.41, 3.6, 1.05, 0.0, 0.0, 0.0, 0.82, 0.74, 0.78, 1.54, 2.59, 3.65, 3.65, 3.82, 3.82, 3.82, 4.36, 5.2, 5.99, 5.98, 7.27, 6.95, 6.17, 5.9, 5.9, 6.64, 8.4, 9.55, 10.32, 10.0, 9.48, 9.86, 9.08, 8.61, 7.89, 7.89, 9.35, 9.58, 10.13, -19.34, -1.83, 2.06, 4.98, 7.69, 9.8, -0.0, -4.24, -6.2, 0.0, 0.0, 0.0, 0.0, -3.44, -3.44, -3.44, -3.56, -3.56, -3.56, -3.68, -3.81, -3.81, -3.69, -3.69, -3.8, -3.8, -3.8, -3.8, -4.66, -4.66, -4.66, -4.66, -4.66, -4.66, -4.4, -4.16, -4.4, -4.66, -3.8, -4.05, -3.93, -3.57, -3.57, -3.46, -3.46, -2.54, -1.71, -1.65, -1.6, -1.71, -1.64, -1.64, -1.77, -0.93, -0.93, -1.84, -0.89, 0.0, 2.24, 3.41, 2.24, 1.09, 0.0, 0.0, 0.0, 0.0, 0.74, 0.78, 1.68, 2.47, 2.59, 2.59, 2.83, 2.95, 3.25, 4.36, 5.0, 5.4, 5.77, 6.44, 5.29, 6.42, 7.68, 7.81, 6.64, 7.51, 9.83, 10.28, 10.32, 10.46, 9.86, 8.82, 8.24, 7.43, 7.62, 6.2, 5.38, 3.78, 0.0, -11.06, -0.0, -0.0, 0.0, -14.75, -14.3, -14.3, -9.8, 4.24, 4.24, 4.24, 4.24, -3.44, -3.44, -3.44, -3.56, -3.56, -3.56, -3.68, -3.81, -3.81, -3.93, -3.69, -3.8, -3.8, -4.66, -4.66, -4.66, -4.66, -4.66, -4.66, -4.66, -4.66, -4.66, -3.58, -3.58, -3.58, -3.8, -3.93, -3.93, -3.81, -3.46, -3.46, -3.34, -2.54, -2.54, -1.65, -1.6, -1.71, -1.64, -1.77, -1.77, -0.89, -1.77, -1.77, -0.89, 0.0, 2.08, 2.16, 2.16, 1.09, 0.0, 0.0, 0.0, 0.0, 0.78, 0.74, 1.6, 2.47, 2.47, 2.47, 2.83, 2.83, 3.25, 3.25, 3.92, 5.2, 5.99, 6.21, 5.75, 7.27, 8.8, 8.18, 7.27, 8.55, 10.58, 10.28, 10.62, 10.27, 9.09, 7.9, 7.56, 7.41, 6.72, 6.05, 3.96, 2.88, 1.74, -9.42, -6.67, -11.6, -12.39, -12.65, -13.19, -13.7, 0.0, 8.31, 9.8, 9.8, 9.8, -3.44, -3.44, -3.44, -3.44, -3.56, -3.56, -3.68, -3.68, -3.81, -3.81, -3.69, -3.69, -4.66, -4.66, -4.66, -4.66, -4.66, -4.66, -4.66, -4.81, -4.66, -4.66, -4.4, -3.58, -3.58, -3.69, -3.93, -3.93, -3.81, -3.46, -3.46, -2.54, -2.54, -2.45, -1.77, -1.71, -1.71, -1.64, -1.77, -1.7, -1.77, -1.77, -1.77, -0.97, 0.0, 1.84, 2.08, 1.05, 0.0, 0.0, 0.0, 0.0, 0.0, 0.82, 0.85, 1.6, 1.6, 1.6, 1.68, 1.84, 1.84, 2.13, 3.25, 3.77, 3.92, 5.77, 5.99, 6.2, 8.23, 6.95, 6.95, 8.82, 10.32, 10.18, 11.02, 10.58, 10.75, 9.09, 8.49, 6.98, 6.71, 6.44, 6.46, 7.36, 7.48, 4.03, -16.99, -11.53, -13.28, -13.44, -13.19, -13.7, -10.43, 11.9, 12.27, 12.79, 12.79, 12.79, -3.44, -3.44, -3.44, -3.44, -3.44, -3.56, -3.68, -3.81, -3.81, -3.81, -4.38, -4.52, -4.66, -4.66, -4.66, -4.66, -4.66, -4.66, -4.66, -4.81, -4.81, -4.66, -4.66, -3.58, -3.47, -3.69, -3.69, -3.81, -2.9, -2.81, -2.63, -2.54, -2.72, -2.62, -2.62, -1.71, -1.71, -1.77, -1.77, -1.7, -1.7, -1.77, -1.77, -0.93, 0.0, 0.89, 0.89, 0.97, 0.0, 0.0, 0.0, 0.0, 0.0, 0.89, 0.89, 1.68, 1.6, 1.6, 1.6, 1.84, 1.84, 2.04, 2.13, 2.49, 4.4, 4.58, 4.58, 7.15, 7.59, 5.9, 7.87, 9.55, 9.55, 9.96, 10.52, 9.97, 10.6, 9.3, 7.9, 7.27, 6.76, 6.7, 8.38, 10.73, 11.45, 8.6, -9.39, -7.44, -11.09, -13.28, -13.99, 14.75, 14.9, 14.47, 13.28, 12.79, 12.79, 12.79, -3.44, -3.44, -3.44, -3.44, -3.44, -3.44, -3.56, -3.68, -4.51, -4.51, -4.66, -4.52, -4.52, -4.66, -4.66, -4.66, -4.66, -4.66, -4.66, -4.81, -4.81, -4.81, -4.81, -4.66, -4.27, -4.52, -3.69, -3.81, -2.9, -2.81, -2.72, -2.72, -2.62, -2.62, -2.62, -2.53, -1.71, -1.77, -1.7, -1.7, -1.7, -1.7, -1.7, 0.0, 0.0, 0.89, 0.89, 0.0, 0.0, 0.0, 0.0, 0.0, 0.0, 0.89, 0.89, 0.78, 0.78, 0.81, 0.81, 1.75, 1.84, 2.04, 2.13, 2.49, 2.95, 3.07, 5.0, 6.2, 6.42, 6.95, 9.2, 9.2, 9.6, 10.0, 10.0, 8.55, 8.18, 8.23, 6.7, 6.24, 6.5, 5.55, 6.81, 9.37, 9.47, 12.21, -16.54, -0.0, 5.15, 6.6, 12.16, 15.2, 15.53, 14.42, 13.19, 12.42, 12.42, 12.42, -3.44, -3.44, -3.44, -3.44, -3.56, -3.56, -3.56, -4.36, -4.51, -4.51, -4.66, -4.52, -4.52, -4.66, -4.66, -4.66, -4.66, -4.66, -4.66, -4.66, -4.81, -4.81, -4.81, -4.66, -4.27, -4.27, -3.69, -3.81, -2.81, -2.81, -2.72, -2.62, -2.62, -2.62, -2.53, -2.53, -1.84, -1.77, -1.77, -1.7, -1.7, -2.51, -1.7, 0.0, 0.0, 0.89, 0.0, 0.0, 0.0, 0.0, 0.0, 0.0, 0.0, 0.0, 0.0, 0.0, 0.0, 0.81, 0.89, 0.89, 0.89, 1.04, 2.13, 2.49, 2.49, 2.95, 3.39, 4.8, 6.17, 7.27, 9.2, 8.93, 8.93, 10.84, 9.6, 7.27, 8.18, 6.95, 5.29, 5.95, 5.54, 4.48, 4.21, 4.07, 4.04, 7.01, 3.24, -5.23, 2.43, 12.16, 14.9, 15.08, 15.18, 13.99, 13.19, 12.9, 12.9, 12.9, -3.44, -3.44, -3.44, -3.44, -3.56, -3.56, -4.36, -4.51, -4.51, -4.51, -4.66, -4.66, -4.52, -4.66, -4.66, -4.96, -4.96, -4.96, -4.66, -4.81, -4.81, -4.81, -4.81, -4.66, -4.27, -4.27, -3.57, -3.81, -2.81, -2.72, -2.72, -2.62, -2.62, -2.53, -2.53, -2.53, -1.77, -1.77, -1.77, -1.7, -2.51, -1.7, -0.93, 0.0, 0.0, 0.0, 0.0, 0.0, 0.0, 0.0, 0.0, 0.0, 0.0, 0.0, 0.0, 0.0, 0.0, 0.0, 0.89, 0.85, 0.89, 0.99, 1.04, 2.39, 2.39, 2.7, 3.25, 3.82, 6.17, 5.95, 7.59, 7.59, 8.93, 10.6, 8.93, 7.27, 6.95, 6.64, 5.9, 6.7, 4.4, 3.34, 2.11, 1.0, 0.99, 1.82, 3.73, 0.0, -11.06, -0.0, 15.34, 15.2, 15.27, 13.68, 13.03, 12.09, 12.09, 12.09, -3.44, -3.44, -3.44, -3.44, -3.56, -3.56, -4.36, -4.51, -4.51, -4.51, -4.66, -4.66, -4.81, -4.81, -4.96, -4.81, -4.81, -4.96, -4.96, -4.96, -5.11, -4.81, -4.81, -4.81, -4.52, -4.13, -4.38, -3.81, -3.68, -2.92, -2.92, -2.62, -2.62, -2.53, -2.53, -2.53, -2.71, -1.77, -1.77, -2.51, -2.51, -1.7, -0.89, 0.0, 0.0, 0.0, 0.0, 0.0, -0.93, -0.93, 0.0, 0.0, 0.0, 0.0, 0.0, 0.0, 0.0, 0.0, 0.0, 0.0, 0.85, 0.94, 0.99, 1.11, 1.16, 2.58, 3.11, 3.65, 4.4, 2.39, 2.39, 7.59, 7.59, 9.2, 7.27, 4.6, 3.25, 3.11, 0.0, 5.52, 3.07, 1.16, 1.03, 0.0, 0.0, 0.0, 1.75, 3.32, 0.0, -11.7, 16.09, 15.65, 15.57, 14.94, 13.2, 12.11, 12.11, 12.11, -3.44, -3.44, -3.44, -3.44, -3.44, -4.36, -4.36, -4.36, -4.51, -4.51, -4.66, -4.66, -4.81, -4.81, -4.81, -4.81, -4.81, -4.81, -4.96, -4.96, -4.96, -5.11, -4.81, -4.66, -4.52, -4.38, -4.38, -3.68, -3.68, -2.92, -2.92, -2.81, -2.53, -2.53, -2.53, -2.71, -2.71, -2.61, -2.61, -2.61, -2.51, -1.7, -0.93, 0.0, 0.0, 0.0, -0.85, -0.93, -0.93, -0.93, 0.0, 0.0, 0.0, 0.0, 0.0, 0.0, 0.0, 0.0, 0.0, 0.0, 0.0, 0.0, 0.94, 1.11, 1.11, 1.33, 1.33, 1.54, 0.0, 0.0, 3.11, 0.0, 0.0, 0.0, 0.0, 0.0, 0.0, 0.0, 0.0, 0.0, 1.58, 0.0, 0.0, 0.0, 0.96, 1.75, 2.55, 3.6, 4.16, 1.17, 0.0, 16.54, 16.54, 15.69, 13.55, 11.06, 11.06, 11.06, -3.68, -3.68, -3.56, -3.56, -4.36, -4.36, -4.36, -4.36, -4.36, -4.51, -4.51, -4.66, -4.81, -4.81, -4.81, -4.81, -4.81, -4.81, -4.81, -4.96, -4.96, -4.96, -4.96, -4.96, -4.52, -4.38, -4.38, -4.24, -3.68, -3.81, -2.92, -2.81, -3.55, -2.71, -2.71, -2.61, -2.61, -2.61, -2.61, -2.51, -2.51, -1.84, -0.93, -0.89, -0.89, -0.89, -0.89, -0.93, -0.93, -0.93, -0.89, -0.89, -0.89, 0.0, 0.0, 0.0, 0.0, 0.0, 0.0, 0.0, 0.0, 0.0, 0.0, 0.0, 0.0, 0.0, 0.0, 0.0, 0.0, 0.0, 0.0, 0.0, 0.0, 0.0, 0.0, 0.0, 0.0, 3.25, 0.0, 0.0, 0.0, 0.0, 0.0, 0.0, 1.01, 3.76, 5.19, 5.29, 5.4, 5.4, 3.56, 7.6, 16.99, 16.66, 12.71, 9.39, 9.39, 9.39, -3.68, -3.68, -3.56, -3.56, -4.36, -4.36, -4.36, -4.36, -4.36, -4.51, -4.51, -4.66, -4.81, -4.81, -4.81, -4.81, -4.81, -4.81, -4.81, -4.96, -4.96, -4.96, -4.96, -4.96, -4.52, -4.38, -4.38, -4.24, -3.68, -3.81, -2.92, -2.81, -3.55, -2.71, -2.71, -2.61, -2.61, -2.61, -2.61, -2.51, -2.51, -1.84, -0.93, -0.89, -0.89, -0.89, -0.89, -0.93, -0.93, -0.93, -0.89, -0.89, -0.89, 0.0, 0.0, 0.0, 0.0, 0.0, 0.0, 0.0, 0.0, 0.0, 0.0, 0.0, 0.0, 0.0, 0.0, 0.0, 0.0, 0.0, 0.0, 0.0, 0.0, 0.0, 0.0, 0.0, 3.25, 3.25, 0.0, 0.0, 0.0, 1.11, 0.93, 0.95, 1.98, 4.05, 5.65, 6.87, 6.87, 6.57, 6.64, 7.8, 10.73, 14.88, 11.7, 8.05, 8.05, 8.05]}]